LOT100 RKSI-EPWA

Flight info

Callsign LOT100
Flight time 11h 40m
Altitude 21700
Route NOPIK Y697 AGAVO/K0767S0660 A591 IKEKA W4 FZ/K0902S1100 W4 HCH W200 DOVIV W55 PAMRU W34 VYK B215 LEBOM W104 VEXEB W47 IDSOT W48 DKO W66 BUVTA/K0895S1160 W66 NUKTI B215 FKG A368 SARIN/K0885F380 N161 AMASO/K0895F400 N161 GASBI/N0488F400 N161 LEYLA N644 ADEKI DCT BADIR DCT LAGAS DCT NOLGA UN61 TBN UM11 CRM UL746 ODERO DCT KARIL DCT KENIN/N0456F340 DCT ORTEB DCT KONZI DCT LOGDA
Aircraft B789/H-SADE1E2E3FGHIJ1J2J3J4J5M1P2RVWXYZ/SB2D1G1

Departure

Time 2026-05-05 06:48
Airport Incheon International Airport (RKSI)

Arrival

Time 2026-05-05 18:28
Airport Warsaw Chopin Airport (EPWA)
Time Latitude Longitude Altitude Speed Heading
2026-05-05 05:42 37.45210 126.45064 38 ft 0 kts 73°
2026-05-05 06:24 37.45207 126.45053 38 ft 2 kts 73°
2026-05-05 06:25 37.45203 126.45034 38 ft 2 kts 73°
2026-05-05 06:25 37.45198 126.45015 36 ft 2 kts 62°
2026-05-05 06:25 37.45188 126.45000 36 ft 2 kts 32°
2026-05-05 06:25 37.45173 126.44993 37 ft 2 kts
2026-05-05 06:26 37.45161 126.44995 37 ft 0 kts 339°
2026-05-05 06:31 37.45163 126.44994 37 ft 1 kts 339°
2026-05-05 06:31 37.45164 126.44993 37 ft 0 kts 335°
2026-05-05 06:31 37.45181 126.44981 34 ft 5 kts 326°
2026-05-05 06:32 37.45209 126.44955 38 ft 4 kts 326°
2026-05-05 06:32 37.45234 126.44936 38 ft 4 kts 332°
2026-05-05 06:32 37.45258 126.44924 38 ft 4 kts 338°
2026-05-05 06:32 37.45286 126.44912 38 ft 5 kts 341°
2026-05-05 06:33 37.45319 126.44896 36 ft 5 kts 333°
2026-05-05 06:33 37.45351 126.44859 38 ft 7 kts 302°
2026-05-05 06:33 37.45356 126.44797 38 ft 8 kts 255°
2026-05-05 06:33 37.45329 126.44732 38 ft 10 kts 238°
2026-05-05 06:34 37.45286 126.44650 38 ft 13 kts 234°
2026-05-05 06:34 37.45228 126.44547 36 ft 15 kts 234°
2026-05-05 06:34 37.45170 126.44445 38 ft 14 kts 234°
2026-05-05 06:34 37.45117 126.44352 38 ft 12 kts 234°
2026-05-05 06:35 37.45069 126.44267 38 ft 11 kts 234°
2026-05-05 06:35 37.45026 126.44192 38 ft 10 kts 234°
2026-05-05 06:35 37.44988 126.44124 38 ft 9 kts 234°
2026-05-05 06:35 37.44974 126.44060 38 ft 8 kts 277°
2026-05-05 06:36 37.45009 126.44000 38 ft 10 kts 322°
2026-05-05 06:36 37.45080 126.43934 38 ft 15 kts 324°
2026-05-05 06:36 37.45171 126.43852 38 ft 17 kts 325°
2026-05-05 06:36 37.45269 126.43766 38 ft 17 kts 325°
2026-05-05 06:37 37.45368 126.43678 38 ft 18 kts 325°
2026-05-05 06:37 37.45468 126.43590 37 ft 18 kts 324°
2026-05-05 06:37 37.45566 126.43502 38 ft 18 kts 324°
2026-05-05 06:37 37.45667 126.43412 37 ft 18 kts 324°
2026-05-05 06:38 37.45766 126.43324 37 ft 17 kts 324°
2026-05-05 06:38 37.45864 126.43237 38 ft 17 kts 324°
2026-05-05 06:38 37.45963 126.43148 38 ft 17 kts 324°
2026-05-05 06:38 37.46062 126.43059 38 ft 17 kts 325°
2026-05-05 06:39 37.46162 126.42971 38 ft 17 kts 324°
2026-05-05 06:39 37.46260 126.42883 38 ft 17 kts 324°
2026-05-05 06:39 37.46359 126.42796 38 ft 17 kts 324°
2026-05-05 06:39 37.46456 126.42708 36 ft 17 kts 324°
2026-05-05 06:40 37.46552 126.42622 36 ft 17 kts 324°
2026-05-05 06:40 37.46649 126.42535 38 ft 17 kts 324°
2026-05-05 06:40 37.46746 126.42447 38 ft 17 kts 324°
2026-05-05 06:40 37.46842 126.42360 37 ft 17 kts 324°
2026-05-05 06:41 37.46939 126.42273 38 ft 17 kts 324°
2026-05-05 06:41 37.47035 126.42191 37 ft 16 kts 326°
2026-05-05 06:41 37.47126 126.42112 38 ft 16 kts 325°
2026-05-05 06:41 37.47214 126.42036 38 ft 15 kts 325°
2026-05-05 06:42 37.47287 126.41972 38 ft 10 kts 325°
2026-05-05 06:42 37.47322 126.41926 38 ft 4 kts 291°
2026-05-05 06:42 37.47326 126.41891 38 ft 4 kts 268°
2026-05-05 06:42 37.47320 126.41865 38 ft 5 kts 249°
2026-05-05 06:43 37.47299 126.41817 38 ft 8 kts 235°
2026-05-05 06:43 37.47292 126.41806 38 ft 0 kts 234°
2026-05-05 06:45 37.47290 126.41803 38 ft 3 kts 234°
2026-05-05 06:45 37.47269 126.41765 38 ft 7 kts 234°
2026-05-05 06:46 37.47237 126.41711 38 ft 8 kts 234°
2026-05-05 06:46 37.47203 126.41664 38 ft 6 kts 211°
2026-05-05 06:46 37.47184 126.41660 38 ft 3 kts 177°
2026-05-05 06:46 37.47161 126.41671 38 ft 0 kts 146°
2026-05-05 06:47 37.47101 126.41724 38 ft 39 kts 145°
2026-05-05 06:47 37.46681 126.42095 38 ft 107 kts 145°
2026-05-05 06:47 37.45903 126.42789 38 ft 165 kts 145°
2026-05-05 06:47 37.44883 126.43721 387 ft 177 kts 142°
2026-05-05 06:48 37.43813 126.44606 755 ft 198 kts 155°
2026-05-05 06:48 37.42559 126.45475 1328 ft 211 kts 153°
2026-05-05 06:48 37.41306 126.46411 2193 ft 209 kts 154°
2026-05-05 06:48 37.40049 126.47344 2968 ft 211 kts 154°
2026-05-05 06:49 37.38718 126.48310 3509 ft 226 kts 157°
2026-05-05 06:49 37.37158 126.48921 3903 ft 249 kts 171°
2026-05-05 06:49 37.35451 126.49478 4728 ft 255 kts 167°
2026-05-05 06:49 37.33705 126.50084 5523 ft 264 kts 167°
2026-05-05 06:50 37.31923 126.50692 6435 ft 268 kts 168°
2026-05-05 06:50 37.30099 126.51296 7237 ft 272 kts 171°
2026-05-05 06:50 37.28218 126.51281 7902 ft 278 kts 195°
2026-05-05 06:50 37.26506 126.50210 8657 ft 268 kts 220°
2026-05-05 06:51 37.25090 126.48700 9709 ft 270 kts 223°
2026-05-05 06:51 37.23686 126.47035 9973 ft 296 kts 225°
2026-05-05 06:51 37.22126 126.45138 10006 ft 324 kts 224°
2026-05-05 06:51 37.20466 126.43183 10002 ft 330 kts 223°
2026-05-05 06:52 37.18775 126.41224 10002 ft 332 kts 223°
2026-05-05 06:52 37.17078 126.39239 9982 ft 334 kts 224°
2026-05-05 06:52 37.15382 126.37242 9978 ft 334 kts 224°
2026-05-05 06:52 37.13682 126.35249 9991 ft 333 kts 224°
2026-05-05 06:53 37.12011 126.33238 9965 ft 332 kts 230°
2026-05-05 06:53 37.10845 126.30760 9965 ft 333 kts 250°
2026-05-05 06:53 37.10446 126.27943 10593 ft 333 kts 266°
2026-05-05 06:53 37.10345 126.25006 11352 ft 340 kts 268°
2026-05-05 06:54 37.10342 126.22022 12123 ft 346 kts 269°
2026-05-05 06:54 37.10351 126.18974 12878 ft 352 kts 268°
2026-05-05 06:54 37.10318 126.15880 13610 ft 358 kts 268°
2026-05-05 06:54 37.10273 126.12723 14290 ft 364 kts 268°
2026-05-05 06:55 37.10438 126.09553 14968 ft 369 kts 284°
2026-05-05 06:55 37.11329 126.06560 15636 ft 374 kts 292°
2026-05-05 06:55 37.12373 126.03561 16360 ft 377 kts 294°
2026-05-05 06:55 37.13450 126.00553 17038 ft 380 kts 293°
2026-05-05 06:56 37.14503 125.97498 17733 ft 384 kts 292°
2026-05-05 06:56 37.15549 125.94403 18404 ft 387 kts 293°
2026-05-05 06:56 37.16617 125.91286 18985 ft 390 kts 293°
2026-05-05 06:56 37.17700 125.88152 19570 ft 393 kts 293°
2026-05-05 06:57 37.18787 125.84991 20144 ft 396 kts 293°
2026-05-05 06:57 37.19876 125.81801 20704 ft 399 kts 293°
2026-05-05 06:57 37.20979 125.78573 21249 ft 403 kts 293°
2026-05-05 06:57 37.22089 125.75326 21782 ft 406 kts 293°
2026-05-05 06:58 37.23210 125.72047 22058 ft 415 kts 293°
2026-05-05 06:58 37.24348 125.68709 22055 ft 414 kts 293°
2026-05-05 06:58 37.25473 125.65403 22054 ft 409 kts 293°
2026-05-05 06:58 37.26592 125.62117 22058 ft 409 kts 293°
2026-05-05 06:59 37.27709 125.58831 22054 ft 409 kts 293°
2026-05-05 06:59 37.28823 125.55550 22053 ft 409 kts 293°
2026-05-05 06:59 37.29939 125.52257 22054 ft 409 kts 293°
2026-05-05 06:59 37.31039 125.49011 22046 ft 409 kts 293°
2026-05-05 07:00 37.32154 125.45716 22048 ft 409 kts 293°
2026-05-05 07:00 37.33264 125.42430 22043 ft 409 kts 293°
2026-05-05 07:00 37.34377 125.39134 22046 ft 409 kts 293°
2026-05-05 07:00 37.35489 125.35840 22046 ft 409 kts 293°
2026-05-05 07:01 37.36597 125.32548 22040 ft 410 kts 293°
2026-05-05 07:01 37.37709 125.29245 22042 ft 410 kts 293°
2026-05-05 07:01 37.38816 125.25946 22041 ft 409 kts 292°
2026-05-05 07:01 37.39579 125.22515 22077 ft 409 kts 276°
2026-05-05 07:02 37.39641 125.18936 22060 ft 411 kts 269°
2026-05-05 07:02 37.39576 125.15338 22054 ft 411 kts 269°
2026-05-05 07:02 37.39497 125.11744 22055 ft 411 kts 269°
2026-05-05 07:02 37.39432 125.08148 22050 ft 411 kts 269°
2026-05-05 07:03 37.39375 125.04550 22049 ft 411 kts 269°
2026-05-05 07:03 37.39310 125.00954 22043 ft 411 kts 269°
2026-05-05 07:03 37.39240 124.97356 22043 ft 411 kts 269°
2026-05-05 07:03 37.39170 124.93768 22046 ft 411 kts 269°
2026-05-05 07:04 37.39102 124.90173 22042 ft 411 kts 269°
2026-05-05 07:04 37.39033 124.86576 22045 ft 411 kts 269°
2026-05-05 07:04 37.38962 124.83023 22041 ft 411 kts 269°
2026-05-05 07:04 37.38888 124.79427 22042 ft 411 kts 269°
2026-05-05 07:05 37.38814 124.75834 22038 ft 411 kts 269°
2026-05-05 07:05 37.38738 124.72240 22039 ft 411 kts 269°
2026-05-05 07:05 37.38662 124.68644 22035 ft 411 kts 269°
2026-05-05 07:05 37.38585 124.65049 22036 ft 411 kts 269°
2026-05-05 07:06 37.38506 124.61455 22028 ft 411 kts 269°
2026-05-05 07:06 37.38426 124.57858 22030 ft 411 kts 269°
2026-05-05 07:06 37.38345 124.54268 22027 ft 411 kts 269°
2026-05-05 07:06 37.38263 124.50715 22025 ft 411 kts 269°
2026-05-05 07:07 37.38181 124.47119 22025 ft 411 kts 269°
2026-05-05 07:07 37.38005 124.43539 22026 ft 411 kts 259°
2026-05-05 07:07 37.37135 124.40121 22037 ft 413 kts 243°
2026-05-05 07:07 37.35678 124.37006 22021 ft 414 kts 238°
2026-05-05 07:08 37.34661 124.34970 22024 ft 414 kts 238°
2026-05-05 07:08 37.33107 124.31922 22021 ft 414 kts 238°
2026-05-05 07:08 37.31561 124.28862 22019 ft 414 kts 238°
2026-05-05 07:08 37.30031 124.25792 22019 ft 415 kts 238°
2026-05-05 07:09 37.28495 124.22720 22019 ft 415 kts 238°
2026-05-05 07:09 37.26950 124.19656 22019 ft 415 kts 238°
2026-05-05 07:09 37.25403 124.16591 22016 ft 415 kts 238°
2026-05-05 07:09 37.23859 124.13524 22013 ft 415 kts 238°
2026-05-05 07:10 37.22217 124.10548 22007 ft 415 kts 236°
2026-05-05 07:10 37.20662 124.07555 22013 ft 415 kts 238°
2026-05-05 07:10 37.19103 124.04509 22010 ft 415 kts 237°
2026-05-05 07:10 37.17491 124.01505 22009 ft 415 kts 236°
2026-05-05 07:11 37.15857 123.98499 22009 ft 416 kts 237°
2026-05-05 07:11 37.14295 123.95458 22007 ft 416 kts 238°
2026-05-05 07:11 37.12762 123.92387 22008 ft 415 kts 238°
2026-05-05 07:11 37.11190 123.89330 22010 ft 416 kts 237°
2026-05-05 07:12 37.09603 123.86298 22008 ft 416 kts 237°
2026-05-05 07:12 37.08028 123.83260 22008 ft 415 kts 238°
2026-05-05 07:12 37.06466 123.80218 22006 ft 415 kts 238°
2026-05-05 07:12 37.04918 123.77219 22004 ft 415 kts 237°
2026-05-05 07:13 37.03345 123.74190 22003 ft 415 kts 237°
2026-05-05 07:13 37.01771 123.71159 22003 ft 415 kts 237°
2026-05-05 07:13 37.00199 123.68125 22004 ft 416 kts 237°
2026-05-05 07:13 36.98621 123.65083 22002 ft 416 kts 237°
2026-05-05 07:14 36.97040 123.62044 22001 ft 416 kts 237°
2026-05-05 07:14 36.95459 123.59007 21997 ft 416 kts 237°
2026-05-05 07:14 36.93882 123.55977 21994 ft 416 kts 237°
2026-05-05 07:14 36.92321 123.52981 21995 ft 415 kts 237°
2026-05-05 07:15 36.90745 123.49960 21994 ft 416 kts 237°
2026-05-05 07:15 36.89166 123.46935 21999 ft 416 kts 237°
2026-05-05 07:15 36.87587 123.43915 21993 ft 416 kts 237°
2026-05-05 07:15 36.86002 123.40884 21993 ft 416 kts 238°
2026-05-05 07:16 36.84699 123.37675 22015 ft 414 kts 253°
2026-05-05 07:16 36.84143 123.34159 22009 ft 414 kts 269°
2026-05-05 07:16 36.84357 123.30591 22007 ft 412 kts 284°
2026-05-05 07:16 36.85136 123.27153 21988 ft 412 kts 287°
2026-05-05 07:17 36.85964 123.23724 21990 ft 411 kts 288°
2026-05-05 07:17 36.86805 123.20313 21992 ft 411 kts 288°
2026-05-05 07:17 36.87633 123.16896 21988 ft 411 kts 288°
2026-05-05 07:17 36.88442 123.13510 21988 ft 411 kts 288°
2026-05-05 07:18 36.89262 123.10093 21985 ft 411 kts 288°
2026-05-05 07:18 36.90087 123.06676 21985 ft 411 kts 288°
2026-05-05 07:18 36.90910 123.03259 21980 ft 411 kts 288°
2026-05-05 07:18 36.91730 122.99832 21979 ft 410 kts 288°
2026-05-05 07:19 36.92548 122.96412 21982 ft 410 kts 288°
2026-05-05 07:19 36.93366 122.92993 21977 ft 410 kts 288°
2026-05-05 07:19 36.94181 122.89581 21974 ft 410 kts 288°
2026-05-05 07:19 36.94996 122.86165 21975 ft 410 kts 287°
2026-05-05 07:20 36.95810 122.82743 21977 ft 410 kts 288°
2026-05-05 07:20 36.96623 122.79324 21973 ft 410 kts 288°
2026-05-05 07:20 36.97435 122.75903 21971 ft 410 kts 288°
2026-05-05 07:20 36.98244 122.72493 21972 ft 410 kts 287°
2026-05-05 07:21 36.99053 122.69073 21966 ft 410 kts 287°
2026-05-05 07:21 36.99863 122.65650 21966 ft 410 kts 287°
2026-05-05 07:21 37.00661 122.62270 21967 ft 410 kts 287°
2026-05-05 07:21 37.01468 122.58843 21960 ft 410 kts 287°
2026-05-05 07:22 37.02273 122.55423 21962 ft 410 kts 287°
2026-05-05 07:22 37.03078 122.52001 21962 ft 410 kts 287°
2026-05-05 07:22 37.03881 122.48577 21958 ft 410 kts 287°
2026-05-05 07:22 37.04683 122.45157 21960 ft 410 kts 287°
2026-05-05 07:23 37.05485 122.41734 21960 ft 409 kts 287°
2026-05-05 07:23 37.06284 122.38312 21954 ft 409 kts 287°
2026-05-05 07:23 37.07185 122.34940 21957 ft 407 kts 298°
2026-05-05 07:23 37.08706 122.31969 21968 ft 406 kts 313°
2026-05-05 07:24 37.10785 122.29589 21982 ft 405 kts 324°
2026-05-05 07:24 37.13051 122.27485 21957 ft 405 kts 324°
2026-05-05 07:24 37.15323 122.25387 21953 ft 405 kts 324°
2026-05-05 07:24 37.17421 122.23040 21966 ft 405 kts 310°
2026-05-05 07:25 37.18959 122.20081 21979 ft 408 kts 295°
2026-05-05 07:25 37.19936 122.16738 21951 ft 409 kts 289°
2026-05-05 07:25 37.20826 122.13346 22002 ft 408 kts 289°
2026-05-05 07:25 37.21690 122.09966 22220 ft 407 kts 289°
2026-05-05 07:26 37.22553 122.06620 22439 ft 410 kts 289°
2026-05-05 07:26 37.23443 122.03206 22656 ft 412 kts 289°
2026-05-05 07:26 37.24334 121.99774 22880 ft 413 kts 289°
2026-05-05 07:26 37.25222 121.96326 23215 ft 413 kts 289°
2026-05-05 07:27 37.26104 121.92897 23658 ft 415 kts 289°
2026-05-05 07:27 37.26998 121.89433 24112 ft 417 kts 289°
2026-05-05 07:27 37.27892 121.85960 24581 ft 419 kts 290°
2026-05-05 07:27 37.28788 121.82470 25055 ft 420 kts 290°
2026-05-05 07:28 37.29684 121.78974 25530 ft 421 kts 290°
2026-05-05 07:28 37.30580 121.75478 26011 ft 421 kts 290°
2026-05-05 07:28 37.31464 121.72023 26496 ft 421 kts 290°
2026-05-05 07:28 37.32357 121.68525 27004 ft 420 kts 290°
2026-05-05 07:29 37.33248 121.65032 27491 ft 420 kts 290°
2026-05-05 07:29 37.34137 121.61547 28001 ft 418 kts 291°
2026-05-05 07:29 37.35022 121.58069 28515 ft 417 kts 291°
2026-05-05 07:29 37.35904 121.54595 29042 ft 415 kts 291°
2026-05-05 07:30 37.36778 121.51148 29565 ft 413 kts 291°
2026-05-05 07:30 37.38517 121.44279 30528 ft 409 kts 290°
2026-05-05 07:30 37.39376 121.40879 30995 ft 406 kts 291°
2026-05-05 07:31 37.40227 121.37504 31456 ft 403 kts 290°
2026-05-05 07:31 37.41070 121.34160 31922 ft 399 kts 290°
2026-05-05 07:31 37.41904 121.30843 32401 ft 396 kts 290°
2026-05-05 07:31 37.42729 121.27563 32887 ft 391 kts 290°
2026-05-05 07:32 37.43533 121.24356 33358 ft 387 kts 290°
2026-05-05 07:32 37.44336 121.21154 33842 ft 381 kts 290°
2026-05-05 07:32 37.45131 121.17990 34267 ft 375 kts 292°
2026-05-05 07:32 37.46097 121.14993 34689 ft 366 kts 295°
2026-05-05 07:33 37.47041 121.12017 34858 ft 368 kts 294°
2026-05-05 07:33 37.47982 121.09002 34959 ft 371 kts 294°
2026-05-05 07:33 37.48946 121.05971 35081 ft 374 kts 294°
2026-05-05 07:33 37.49925 121.02924 35209 ft 376 kts 294°
2026-05-05 07:34 37.51898 120.96711 35238 ft 388 kts 294°
2026-05-05 07:34 37.53927 120.90310 35301 ft 399 kts 294°
2026-05-05 07:35 37.56012 120.83720 35379 ft 410 kts 294°
2026-05-05 07:35 37.58144 120.76961 35463 ft 420 kts 294°
2026-05-05 07:36 37.60379 120.70059 35547 ft 430 kts 295°
2026-05-05 07:36 37.62718 120.63025 35632 ft 439 kts 294°
2026-05-05 07:37 37.65064 120.55821 35709 ft 448 kts 295°
2026-05-05 07:37 37.68077 120.48897 35808 ft 453 kts 301°
2026-05-05 07:38 37.71223 120.41955 35844 ft 461 kts 301°
2026-05-05 07:38 37.74433 120.34930 35835 ft 460 kts 301°
2026-05-05 07:39 37.77616 120.27912 35825 ft 459 kts 301°
2026-05-05 07:39 37.80798 120.20899 35823 ft 460 kts 301°
2026-05-05 07:40 37.83955 120.13916 35812 ft 459 kts 301°
2026-05-05 07:40 37.87125 120.06896 35813 ft 459 kts 300°
2026-05-05 07:41 37.90288 119.99874 35813 ft 459 kts 300°
2026-05-05 07:41 37.93445 119.92848 35806 ft 459 kts 300°
2026-05-05 07:42 37.96597 119.85819 35801 ft 458 kts 300°
2026-05-05 07:42 37.99741 119.78794 35801 ft 458 kts 300°
2026-05-05 07:43 38.02880 119.71763 35795 ft 458 kts 300°
2026-05-05 07:43 38.05995 119.64771 35791 ft 457 kts 300°
2026-05-05 07:44 38.09119 119.57743 35787 ft 457 kts 300°
2026-05-05 07:44 38.11982 119.50560 35792 ft 456 kts 293°
2026-05-05 07:45 38.14430 119.43106 35776 ft 456 kts 294°
2026-05-05 07:45 38.16849 119.35655 35776 ft 456 kts 293°
2026-05-05 07:46 38.19273 119.28195 35770 ft 456 kts 293°
2026-05-05 07:46 38.21675 119.20780 35776 ft 456 kts 293°
2026-05-05 07:47 38.24086 119.13316 35764 ft 456 kts 293°
2026-05-05 07:47 38.26491 119.05849 35761 ft 455 kts 293°
2026-05-05 07:48 38.28893 118.98374 35763 ft 455 kts 293°
2026-05-05 07:48 38.31284 118.90914 35756 ft 455 kts 293°
2026-05-05 07:49 38.33651 118.83507 35754 ft 454 kts 293°
2026-05-05 07:49 38.36026 118.76057 35753 ft 453 kts 293°
2026-05-05 07:50 38.38403 118.68621 35743 ft 452 kts 293°
2026-05-05 07:50 38.40775 118.61192 35744 ft 452 kts 293°
2026-05-05 07:51 38.43139 118.53759 35746 ft 452 kts 293°
2026-05-05 07:51 38.45498 118.46331 35737 ft 452 kts 293°
2026-05-05 07:52 38.47837 118.38938 35738 ft 452 kts 293°
2026-05-05 07:52 38.50187 118.31488 35736 ft 452 kts 293°
2026-05-05 07:53 38.52528 118.24044 35736 ft 451 kts 293°
2026-05-05 07:53 38.54856 118.16626 35730 ft 450 kts 293°
2026-05-05 07:54 38.57178 118.09203 35722 ft 449 kts 293°
2026-05-05 07:54 38.60006 118.02135 35734 ft 446 kts 308°
2026-05-05 07:55 38.63430 117.97217 35720 ft 446 kts 313°
2026-05-05 07:55 38.68412 117.90549 35725 ft 445 kts 314°
2026-05-05 07:56 38.72699 117.84824 35722 ft 444 kts 314°
2026-05-05 07:56 38.76271 117.80034 35717 ft 443 kts 314°
2026-05-05 07:57 38.80527 117.74326 35720 ft 442 kts 314°
2026-05-05 07:57 38.84746 117.68652 35719 ft 442 kts 314°
2026-05-05 07:58 38.88989 117.62938 35717 ft 441 kts 314°
2026-05-05 07:58 38.93219 117.57231 35711 ft 441 kts 314°
2026-05-05 07:59 38.97443 117.51520 35708 ft 440 kts 314°
2026-05-05 07:59 39.01654 117.45817 35703 ft 439 kts 314°
2026-05-05 08:00 39.05658 117.39909 35711 ft 439 kts 304°
2026-05-05 08:00 39.08307 117.32822 35710 ft 444 kts 288°
2026-05-05 08:01 39.09521 117.25037 35700 ft 447 kts 283°
2026-05-05 08:01 39.10577 117.17138 35707 ft 447 kts 283°
2026-05-05 08:02 39.11623 117.09235 35697 ft 448 kts 283°
2026-05-05 08:02 39.12666 117.01351 35698 ft 447 kts 283°
2026-05-05 08:03 39.13856 116.93519 35700 ft 445 kts 285°
2026-05-05 08:03 39.15068 116.85684 35693 ft 446 kts 285°
2026-05-05 08:04 39.16299 116.77859 35689 ft 445 kts 285°
2026-05-05 08:04 39.17502 116.70090 35683 ft 444 kts 285°
2026-05-05 08:05 39.18694 116.62268 35683 ft 445 kts 281°
2026-05-05 08:05 39.18645 116.54214 35693 ft 457 kts 264°
2026-05-05 08:06 39.16985 116.46231 35688 ft 463 kts 259°
2026-05-05 08:06 39.15148 116.38261 35686 ft 463 kts 259°
2026-05-05 08:07 39.13308 116.30330 35683 ft 462 kts 259°
2026-05-05 08:07 39.11479 116.22449 35678 ft 461 kts 259°
2026-05-05 08:08 39.09634 116.14545 35674 ft 460 kts 259°
2026-05-05 08:08 39.07789 116.06657 35669 ft 459 kts 259°
2026-05-05 08:09 39.05938 115.98774 35668 ft 460 kts 258°
2026-05-05 08:09 39.04084 115.90905 35663 ft 460 kts 258°
2026-05-05 08:10 39.02224 115.83036 35669 ft 459 kts 258°
2026-05-05 08:10 39.00359 115.75175 35663 ft 460 kts 258°
2026-05-05 08:11 38.98489 115.67318 35652 ft 459 kts 258°
2026-05-05 08:11 38.96612 115.59456 35656 ft 460 kts 258°
2026-05-05 08:12 38.94728 115.51608 35657 ft 460 kts 256°
2026-05-05 08:12 38.92197 115.44038 35664 ft 465 kts 251°
2026-05-05 08:13 38.89550 115.36452 35660 ft 465 kts 251°
2026-05-05 08:13 38.86887 115.28891 35656 ft 464 kts 251°
2026-05-05 08:14 38.84233 115.21343 35657 ft 464 kts 251°
2026-05-05 08:14 38.81573 115.13816 35656 ft 463 kts 251°
2026-05-05 08:15 38.78930 115.06347 35658 ft 463 kts 251°
2026-05-05 08:15 38.76263 114.98830 35661 ft 462 kts 251°
2026-05-05 08:16 38.73594 114.91318 35671 ft 463 kts 251°
2026-05-05 08:16 38.70924 114.83817 35662 ft 462 kts 251°
2026-05-05 08:17 38.68253 114.76337 35662 ft 462 kts 251°
2026-05-05 08:17 38.65595 114.68906 35650 ft 462 kts 251°
2026-05-05 08:18 38.62916 114.61441 35648 ft 461 kts 251°
2026-05-05 08:18 38.60221 114.53993 35655 ft 461 kts 250°
2026-05-05 08:19 38.57515 114.46549 35660 ft 461 kts 251°
2026-05-05 08:19 38.54826 114.39100 35649 ft 461 kts 251°
2026-05-05 08:20 38.52123 114.31675 35656 ft 461 kts 251°
2026-05-05 08:20 38.49419 114.24241 35655 ft 462 kts 250°
2026-05-05 08:21 38.46705 114.16810 35659 ft 462 kts 250°
2026-05-05 08:21 38.44002 114.09421 35659 ft 462 kts 250°
2026-05-05 08:22 38.41274 114.01988 35676 ft 464 kts 250°
2026-05-05 08:22 38.38537 113.94529 35675 ft 463 kts 250°
2026-05-05 08:23 38.35798 113.87085 35671 ft 463 kts 250°
2026-05-05 08:23 38.33051 113.79653 35668 ft 464 kts 250°
2026-05-05 08:24 38.30240 113.72241 35676 ft 467 kts 250°
2026-05-05 08:24 38.27442 113.64809 35675 ft 464 kts 250°
2026-05-05 08:25 38.24650 113.57437 35681 ft 465 kts 250°
2026-05-05 08:25 38.21817 113.49971 35684 ft 465 kts 250°
2026-05-05 08:26 38.19017 113.42607 35693 ft 465 kts 250°
2026-05-05 08:26 38.16195 113.35205 35698 ft 465 kts 250°
2026-05-05 08:27 38.13437 113.27764 35712 ft 464 kts 251°
2026-05-05 08:27 38.10687 113.20404 35720 ft 463 kts 251°
2026-05-05 08:28 38.07921 113.13017 35717 ft 464 kts 251°
2026-05-05 08:28 38.05147 113.05617 35721 ft 464 kts 251°
2026-05-05 08:29 38.02364 112.98220 35721 ft 464 kts 251°
2026-05-05 08:30 37.98183 112.87135 35704 ft 464 kts 251°
2026-05-05 08:30 37.95392 112.79754 35704 ft 464 kts 251°
2026-05-05 08:31 37.92607 112.72412 35694 ft 465 kts 251°
2026-05-05 08:31 37.89798 112.65022 35692 ft 465 kts 251°
2026-05-05 08:32 37.86943 112.57650 35697 ft 468 kts 249°
2026-05-05 08:32 37.83862 112.50374 35696 ft 470 kts 249°
2026-05-05 08:33 37.80777 112.43077 35706 ft 471 kts 249°
2026-05-05 08:33 37.78560 112.35465 35711 ft 455 kts 266°
2026-05-05 08:34 37.78181 112.27624 35718 ft 441 kts 282°
2026-05-05 08:34 37.78895 112.19974 35711 ft 438 kts 282°
2026-05-05 08:35 37.79635 112.12339 35706 ft 438 kts 282°
2026-05-05 08:35 37.80367 112.04684 35712 ft 438 kts 282°
2026-05-05 08:36 37.81090 111.97081 35714 ft 438 kts 282°
2026-05-05 08:36 37.81814 111.89422 35713 ft 438 kts 282°
2026-05-05 08:37 37.82531 111.81765 35715 ft 437 kts 282°
2026-05-05 08:37 37.83243 111.74126 35715 ft 437 kts 282°
2026-05-05 08:38 37.84046 111.66529 35715 ft 435 kts 283°
2026-05-05 08:38 37.84933 111.59007 35721 ft 430 kts 289°
2026-05-05 08:39 37.87008 111.51997 35724 ft 422 kts 302°
2026-05-05 08:39 37.90408 111.45974 35712 ft 421 kts 315°
2026-05-05 08:40 37.94833 111.41168 35698 ft 419 kts 321°
2026-05-05 08:40 37.98652 111.37385 35696 ft 419 kts 321°
2026-05-05 08:41 38.03272 111.32837 35685 ft 419 kts 321°
2026-05-05 08:41 38.07837 111.28320 35668 ft 420 kts 321°
2026-05-05 08:42 38.12447 111.23758 35668 ft 419 kts 321°
2026-05-05 08:42 38.17042 111.19200 35662 ft 419 kts 321°
2026-05-05 08:43 38.21640 111.14634 35654 ft 419 kts 321°
2026-05-05 08:43 38.26243 111.10054 35651 ft 420 kts 321°
2026-05-05 08:44 38.30815 111.05497 35643 ft 420 kts 321°
2026-05-05 08:44 38.35412 111.00909 35632 ft 419 kts 321°
2026-05-05 08:45 38.39995 110.96327 35626 ft 419 kts 321°
2026-05-05 08:45 38.44579 110.91736 35615 ft 419 kts 320°
2026-05-05 08:46 38.49163 110.87137 35615 ft 419 kts 320°
2026-05-05 08:46 38.53753 110.82527 35608 ft 419 kts 320°
2026-05-05 08:47 38.58336 110.77913 35605 ft 419 kts 320°
2026-05-05 08:47 38.62891 110.73319 35602 ft 419 kts 320°
2026-05-05 08:48 38.67466 110.68699 35598 ft 419 kts 320°
2026-05-05 08:48 38.72038 110.64074 35596 ft 418 kts 320°
2026-05-05 08:49 38.76603 110.59449 35594 ft 418 kts 320°
2026-05-05 08:49 38.81164 110.54819 35589 ft 418 kts 320°
2026-05-05 08:50 38.85732 110.50176 35591 ft 419 kts 320°
2026-05-05 08:50 38.90267 110.45557 35589 ft 418 kts 320°
2026-05-05 08:51 38.94818 110.40915 35591 ft 418 kts 319°
2026-05-05 08:51 38.99395 110.36295 35585 ft 418 kts 320°
2026-05-05 08:52 39.03977 110.31686 35584 ft 418 kts 320°
2026-05-05 08:52 39.08551 110.27060 35585 ft 418 kts 320°
2026-05-05 08:53 39.13056 110.22323 35592 ft 416 kts 313°
2026-05-05 08:53 39.16670 110.16527 35587 ft 416 kts 301°
2026-05-05 08:54 39.19034 110.09774 35585 ft 419 kts 289°
2026-05-05 08:54 39.20021 110.02326 35582 ft 425 kts 278°
2026-05-05 08:55 39.20396 109.94720 35575 ft 425 kts 278°
2026-05-05 08:55 39.20746 109.87108 35571 ft 424 kts 278°
2026-05-05 08:56 39.21099 109.79531 35565 ft 423 kts 278°
2026-05-05 08:56 39.21444 109.71948 35560 ft 423 kts 278°
2026-05-05 08:57 39.21784 109.64369 35557 ft 423 kts 278°
2026-05-05 08:57 39.22118 109.56843 35553 ft 423 kts 278°
2026-05-05 08:58 39.22447 109.49279 35548 ft 422 kts 278°
2026-05-05 08:58 39.22738 109.41716 35544 ft 422 kts 277°
2026-05-05 08:59 39.23027 109.34148 35538 ft 422 kts 277°
2026-05-05 08:59 39.23312 109.26588 35537 ft 421 kts 277°
2026-05-05 09:00 39.23590 109.19035 35538 ft 422 kts 277°
2026-05-05 09:00 39.23865 109.11474 35535 ft 422 kts 277°
2026-05-05 09:01 39.24132 109.03955 35538 ft 422 kts 277°
2026-05-05 09:01 39.24396 108.96395 35537 ft 421 kts 277°
2026-05-05 09:02 39.24655 108.88844 35536 ft 420 kts 277°
2026-05-05 09:02 39.24909 108.81318 35540 ft 419 kts 277°
2026-05-05 09:03 39.25161 108.73794 35536 ft 419 kts 277°
2026-05-05 09:03 39.25406 108.66277 35541 ft 419 kts 277°
2026-05-05 09:04 39.25647 108.58760 35544 ft 419 kts 277°
2026-05-05 09:04 39.25882 108.51297 35543 ft 418 kts 277°
2026-05-05 09:05 39.26112 108.43795 35541 ft 417 kts 277°
2026-05-05 09:05 39.26338 108.36321 35547 ft 417 kts 277°
2026-05-05 09:06 39.26558 108.28848 35545 ft 417 kts 277°
2026-05-05 09:06 39.26846 108.21379 35555 ft 413 kts 282°
2026-05-05 09:07 39.28192 108.14264 35568 ft 411 kts 293°
2026-05-05 09:07 39.30827 108.07746 35570 ft 411 kts 304°
2026-05-05 09:08 39.34621 108.02209 35561 ft 415 kts 316°
2026-05-05 09:08 39.39050 107.97396 35561 ft 415 kts 316°
2026-05-05 09:09 39.43488 107.92593 35554 ft 416 kts 316°
2026-05-05 09:09 39.47923 107.87787 35554 ft 416 kts 316°
2026-05-05 09:10 39.52360 107.82966 35558 ft 417 kts 316°
2026-05-05 09:10 39.56771 107.78169 35554 ft 417 kts 316°
2026-05-05 09:11 39.61217 107.73323 35557 ft 418 kts 316°
2026-05-05 09:11 39.65664 107.68469 35555 ft 418 kts 315°
2026-05-05 09:12 39.70118 107.63598 35551 ft 418 kts 315°
2026-05-05 09:12 39.74558 107.58734 35555 ft 418 kts 315°
2026-05-05 09:13 39.78976 107.53885 35557 ft 418 kts 315°
2026-05-05 09:13 39.83422 107.48998 35556 ft 418 kts 315°
2026-05-05 09:14 39.87862 107.44108 35555 ft 417 kts 315°
2026-05-05 09:14 39.92297 107.39215 35558 ft 417 kts 315°
2026-05-05 09:15 39.96726 107.34320 35555 ft 417 kts 315°
2026-05-05 09:15 40.01156 107.29416 35554 ft 417 kts 315°
2026-05-05 09:16 40.05547 107.24547 35552 ft 417 kts 315°
2026-05-05 09:16 40.09961 107.19642 35550 ft 416 kts 315°
2026-05-05 09:17 40.14377 107.14728 35541 ft 416 kts 315°
2026-05-05 09:17 40.18761 107.09840 35538 ft 416 kts 314°
2026-05-05 09:18 40.23161 107.04926 35536 ft 416 kts 314°
2026-05-05 09:18 40.27532 106.99955 35532 ft 413 kts 310°
2026-05-05 09:19 40.31094 106.94135 35533 ft 408 kts 298°
2026-05-05 09:19 40.33527 106.87417 35516 ft 407 kts 291°
2026-05-05 09:20 40.35623 106.80558 35520 ft 407 kts 291°
2026-05-05 09:20 40.37702 106.73639 35518 ft 408 kts 291°
2026-05-05 09:21 40.39789 106.66718 35515 ft 407 kts 291°
2026-05-05 09:21 40.41865 106.59803 35519 ft 407 kts 291°
2026-05-05 09:22 40.43939 106.52877 35518 ft 407 kts 290°
2026-05-05 09:22 40.46010 106.45945 35521 ft 407 kts 290°
2026-05-05 09:23 40.48072 106.39021 35526 ft 407 kts 290°
2026-05-05 09:23 40.50118 106.32139 35529 ft 407 kts 290°
2026-05-05 09:24 40.52172 106.25208 35533 ft 408 kts 290°
2026-05-05 09:24 40.54232 106.18240 35538 ft 408 kts 290°
2026-05-05 09:25 40.56283 106.11280 35541 ft 407 kts 290°
2026-05-05 09:25 40.58327 106.04328 35549 ft 408 kts 290°
2026-05-05 09:26 40.60373 105.97352 35556 ft 408 kts 290°
2026-05-05 09:26 40.62402 105.90414 35556 ft 409 kts 290°
2026-05-05 09:27 40.64443 105.83417 35555 ft 408 kts 289°
2026-05-05 09:27 40.66472 105.76444 35555 ft 408 kts 289°
2026-05-05 09:28 40.68494 105.69473 35559 ft 406 kts 289°
2026-05-05 09:28 40.70507 105.62516 35552 ft 405 kts 289°
2026-05-05 09:29 40.72172 105.56749 35556 ft 404 kts 289°
2026-05-05 09:29 40.74168 105.49818 35555 ft 404 kts 289°
2026-05-05 09:30 40.76159 105.42884 35553 ft 404 kts 289°
2026-05-05 09:30 40.78140 105.35967 35552 ft 403 kts 289°
2026-05-05 09:31 40.80121 105.29032 35554 ft 403 kts 289°
2026-05-05 09:31 40.82083 105.22143 35555 ft 403 kts 288°
2026-05-05 09:32 40.84057 105.15196 35559 ft 404 kts 288°
2026-05-05 09:32 40.86029 105.08237 35558 ft 404 kts 288°
2026-05-05 09:33 40.87995 105.01277 35558 ft 404 kts 288°
2026-05-05 09:33 40.89954 104.94327 35559 ft 403 kts 288°
2026-05-05 09:34 40.91905 104.87384 35545 ft 403 kts 288°
2026-05-05 09:34 40.93851 104.80442 35545 ft 402 kts 288°
2026-05-05 09:35 40.95781 104.73536 35546 ft 402 kts 288°
2026-05-05 09:35 40.98687 104.63101 35540 ft 402 kts 288°
2026-05-05 09:36 41.00617 104.56148 35545 ft 402 kts 288°
2026-05-05 09:36 41.02544 104.49190 35540 ft 403 kts 288°
2026-05-05 09:37 41.04549 104.42249 35545 ft 403 kts 288°
2026-05-05 09:37 41.06551 104.35352 35541 ft 403 kts 288°
2026-05-05 09:38 41.08575 104.28406 35546 ft 404 kts 288°
2026-05-05 09:38 41.10590 104.21450 35549 ft 405 kts 288°
2026-05-05 09:39 41.12612 104.14463 35549 ft 405 kts 288°
2026-05-05 09:39 41.14626 104.07478 35550 ft 406 kts 288°
2026-05-05 09:40 41.16641 104.00476 35554 ft 406 kts 288°
2026-05-05 09:40 41.18639 103.93510 35554 ft 407 kts 288°
2026-05-05 09:41 41.20649 103.86489 35558 ft 406 kts 288°
2026-05-05 09:41 41.22651 103.79469 35553 ft 407 kts 288°
2026-05-05 09:42 41.24656 103.72425 35560 ft 407 kts 288°
2026-05-05 09:42 41.26653 103.65387 35554 ft 407 kts 288°
2026-05-05 09:43 41.28646 103.58342 35561 ft 407 kts 287°
2026-05-05 09:43 41.30628 103.51319 35563 ft 407 kts 287°
2026-05-05 09:44 41.32614 103.44263 35563 ft 407 kts 287°
2026-05-05 09:44 41.34598 103.37192 35563 ft 407 kts 287°
2026-05-05 09:45 41.36573 103.30135 35553 ft 406 kts 287°
2026-05-05 09:45 41.38543 103.23075 35560 ft 406 kts 287°
2026-05-05 09:46 41.40508 103.16015 35556 ft 407 kts 287°
2026-05-05 09:46 41.42461 103.08978 35562 ft 407 kts 287°
2026-05-05 09:47 41.44417 103.01910 35566 ft 406 kts 287°
2026-05-05 09:47 41.46299 102.94826 35570 ft 406 kts 285°
2026-05-05 09:48 41.48164 102.87655 35580 ft 413 kts 285°
2026-05-05 09:48 41.50053 102.80343 35580 ft 420 kts 287°
2026-05-05 09:49 41.52069 102.72981 35560 ft 424 kts 286°
2026-05-05 09:49 41.54148 102.65640 35567 ft 425 kts 287°
2026-05-05 09:50 41.56265 102.58248 35577 ft 426 kts 287°
2026-05-05 09:50 41.58395 102.50843 35576 ft 427 kts 287°
2026-05-05 09:51 41.60504 102.43464 35575 ft 427 kts 287°
2026-05-05 09:51 41.62626 102.36030 35578 ft 427 kts 287°
2026-05-05 09:52 41.64732 102.28627 35582 ft 427 kts 287°
2026-05-05 09:52 41.66839 102.21199 35578 ft 426 kts 287°
2026-05-05 09:53 41.68935 102.13788 35582 ft 425 kts 287°
2026-05-05 09:53 41.71022 102.06386 35583 ft 426 kts 287°
2026-05-05 09:54 41.73110 101.98963 35588 ft 426 kts 287°
2026-05-05 09:54 41.75184 101.91560 35597 ft 427 kts 287°
2026-05-05 09:55 41.77267 101.84111 35596 ft 427 kts 287°
2026-05-05 09:55 41.79345 101.76656 35598 ft 427 kts 286°
2026-05-05 09:56 41.81417 101.69199 35608 ft 427 kts 286°
2026-05-05 09:56 41.83480 101.61751 35611 ft 426 kts 286°
2026-05-05 09:57 41.85530 101.54330 35602 ft 426 kts 286°
2026-05-05 09:57 41.87586 101.46864 35609 ft 426 kts 286°
2026-05-05 09:58 41.89636 101.39397 35608 ft 426 kts 286°
2026-05-05 09:58 41.91678 101.31937 35611 ft 426 kts 286°
2026-05-05 09:59 41.93721 101.24451 35613 ft 427 kts 285°
2026-05-05 09:59 41.95766 101.16939 35620 ft 428 kts 285°
2026-05-05 10:00 41.97779 101.09458 35638 ft 427 kts 283°
2026-05-05 10:00 41.98900 101.01687 35642 ft 423 kts 271°
2026-05-05 10:01 41.98949 100.93812 35631 ft 421 kts 269°
2026-05-05 10:01 41.98914 100.85921 35642 ft 422 kts 268°
2026-05-05 10:02 41.98865 100.78031 35632 ft 421 kts 268°
2026-05-05 10:02 41.98815 100.70190 35641 ft 421 kts 268°
2026-05-05 10:03 41.98757 100.62303 35659 ft 422 kts 268°
2026-05-05 10:03 41.98696 100.54394 35658 ft 423 kts 268°
2026-05-05 10:04 41.98627 100.46479 35660 ft 423 kts 268°
2026-05-05 10:04 41.98554 100.38572 35663 ft 423 kts 268°
2026-05-05 10:05 41.98476 100.30673 35664 ft 422 kts 268°
2026-05-05 10:05 41.98392 100.22765 35675 ft 423 kts 268°
2026-05-05 10:06 41.98303 100.14895 35675 ft 423 kts 268°
2026-05-05 10:06 41.98208 100.06973 35669 ft 423 kts 267°
2026-05-05 10:07 41.98107 99.99054 35679 ft 423 kts 267°
2026-05-05 10:07 41.98001 99.91147 35687 ft 422 kts 267°
2026-05-05 10:08 41.97890 99.83257 35695 ft 422 kts 267°
2026-05-05 10:08 41.97775 99.75417 35706 ft 421 kts 267°
2026-05-05 10:09 41.97653 99.67556 35714 ft 420 kts 267°
2026-05-05 10:09 41.97527 99.59705 35712 ft 420 kts 267°
2026-05-05 10:10 41.97395 99.51842 35709 ft 421 kts 267°
2026-05-05 10:10 41.97257 99.43970 35716 ft 422 kts 266°
2026-05-05 10:11 41.97114 99.36069 35726 ft 423 kts 266°
2026-05-05 10:11 41.96965 99.28155 35729 ft 424 kts 266°
2026-05-05 10:12 41.96811 99.20286 35739 ft 424 kts 266°
2026-05-05 10:12 41.96650 99.12333 35745 ft 425 kts 266°
2026-05-05 10:13 41.96484 99.04386 35738 ft 425 kts 266°
2026-05-05 10:13 41.96312 98.96436 35742 ft 426 kts 266°
2026-05-05 10:14 41.96134 98.88466 35751 ft 427 kts 266°
2026-05-05 10:14 41.95983 98.81852 35753 ft 426 kts 266°
2026-05-05 10:15 41.95764 98.72579 35765 ft 426 kts 266°
2026-05-05 10:15 41.95570 98.64624 35767 ft 426 kts 266°
2026-05-05 10:16 41.95403 98.57959 35761 ft 426 kts 265°
2026-05-05 10:16 41.95201 98.50062 35767 ft 426 kts 265°
2026-05-05 10:17 41.94991 98.42099 35782 ft 426 kts 265°
2026-05-05 10:17 41.94776 98.34144 35781 ft 427 kts 265°
2026-05-05 10:18 41.94556 98.26177 35785 ft 427 kts 265°
2026-05-05 10:18 41.94329 98.18210 35775 ft 427 kts 265°
2026-05-05 10:19 41.94097 98.10220 35785 ft 428 kts 265°
2026-05-05 10:19 41.93858 98.02206 35788 ft 429 kts 265°
2026-05-05 10:20 41.93614 97.94198 35796 ft 430 kts 265°
2026-05-05 10:20 41.93363 97.86176 35798 ft 430 kts 265°
2026-05-05 10:21 41.93107 97.78134 35805 ft 431 kts 265°
2026-05-05 10:21 41.92846 97.70135 35812 ft 431 kts 264°
2026-05-05 10:22 41.92578 97.62090 35816 ft 432 kts 264°
2026-05-05 10:22 41.92304 97.54029 35823 ft 432 kts 264°
2026-05-05 10:23 41.92026 97.46004 35830 ft 432 kts 264°
2026-05-05 10:23 41.91740 97.37929 35836 ft 433 kts 264°
2026-05-05 10:24 41.91448 97.29836 35842 ft 434 kts 264°
2026-05-05 10:24 41.91150 97.21746 35849 ft 435 kts 264°
2026-05-05 10:25 41.90846 97.13626 35864 ft 436 kts 264°
2026-05-05 10:25 41.90535 97.05493 35868 ft 436 kts 264°
2026-05-05 10:26 41.90218 96.97351 35877 ft 437 kts 264°
2026-05-05 10:26 41.89897 96.89251 35888 ft 437 kts 264°
2026-05-05 10:27 41.89568 96.81111 35895 ft 437 kts 264°
2026-05-05 10:27 41.89233 96.72953 35902 ft 437 kts 264°
2026-05-05 10:28 41.88893 96.64811 35909 ft 438 kts 264°
2026-05-05 10:28 41.88547 96.56658 35911 ft 437 kts 264°
2026-05-05 10:29 41.88195 96.48504 35915 ft 437 kts 264°
2026-05-05 10:29 41.87838 96.40377 35923 ft 435 kts 263°
2026-05-05 10:30 41.87476 96.32269 35923 ft 436 kts 263°
2026-05-05 10:30 41.87115 96.24118 35931 ft 438 kts 265°
2026-05-05 10:31 41.87078 96.15966 35932 ft 440 kts 266°
2026-05-05 10:31 41.87021 96.07702 35936 ft 441 kts 266°
2026-05-05 10:32 41.86976 95.99529 35934 ft 441 kts 266°
2026-05-05 10:32 41.86914 95.91278 35934 ft 442 kts 266°
2026-05-05 10:33 41.86852 95.83025 35927 ft 442 kts 266°
2026-05-05 10:33 41.86782 95.74795 35922 ft 440 kts 265°
2026-05-05 10:34 41.86706 95.66606 35917 ft 442 kts 265°
2026-05-05 10:34 41.86625 95.58342 35912 ft 443 kts 265°
2026-05-05 10:35 41.86537 95.50059 35905 ft 444 kts 265°
2026-05-05 10:35 41.86443 95.41770 35902 ft 445 kts 265°
2026-05-05 10:36 41.86343 95.33471 35898 ft 445 kts 265°
2026-05-05 10:36 41.86871 95.25142 35909 ft 454 kts 278°
2026-05-05 10:37 41.89026 95.17084 35902 ft 467 kts 291°
2026-05-05 10:37 41.92813 95.09841 35895 ft 482 kts 304°
2026-05-05 10:38 41.97209 95.03107 35884 ft 482 kts 303°
2026-05-05 10:38 42.01636 94.96348 35863 ft 481 kts 303°
2026-05-05 10:39 42.06041 94.89583 35861 ft 480 kts 303°
2026-05-05 10:39 42.10434 94.82834 35862 ft 478 kts 303°
2026-05-05 10:40 42.14813 94.76084 35855 ft 477 kts 303°
2026-05-05 10:40 42.19174 94.69350 35852 ft 476 kts 303°
2026-05-05 10:41 42.23491 94.62668 35842 ft 474 kts 303°
2026-05-05 10:41 42.27814 94.55960 35840 ft 473 kts 303°
2026-05-05 10:42 42.34287 94.45890 35830 ft 471 kts 303°
2026-05-05 10:43 42.38583 94.39185 35828 ft 471 kts 303°
2026-05-05 10:43 42.42835 94.32537 35827 ft 470 kts 303°
2026-05-05 10:44 42.47109 94.25839 35822 ft 469 kts 302°
2026-05-05 10:44 42.51358 94.19163 35821 ft 468 kts 302°
2026-05-05 10:45 42.55614 94.12462 35830 ft 467 kts 302°
2026-05-05 10:45 42.59847 94.05780 35825 ft 467 kts 302°
2026-05-05 10:46 42.64083 93.99082 35815 ft 467 kts 302°
2026-05-05 10:46 42.68307 93.92384 35821 ft 466 kts 302°
2026-05-05 10:47 42.72499 93.85725 35827 ft 465 kts 302°
2026-05-05 10:47 42.76697 93.79038 35823 ft 464 kts 302°
2026-05-05 10:48 42.80884 93.72356 35831 ft 463 kts 302°
2026-05-05 10:48 42.84464 93.65229 35836 ft 449 kts 289°
2026-05-05 10:49 42.86695 93.57394 35822 ft 441 kts 283°
2026-05-05 10:49 42.88679 93.49511 35821 ft 442 kts 283°
2026-05-05 10:50 42.90650 93.41571 35821 ft 442 kts 283°
2026-05-05 10:50 42.92630 93.33613 35817 ft 443 kts 283°
2026-05-05 10:51 42.94601 93.25642 35819 ft 443 kts 283°
2026-05-05 10:51 42.96572 93.17651 35811 ft 443 kts 283°
2026-05-05 10:52 42.98521 93.09720 35820 ft 444 kts 283°
2026-05-05 10:52 43.00484 93.01703 35819 ft 445 kts 283°
2026-05-05 10:53 43.02443 92.93678 35825 ft 445 kts 283°
2026-05-05 10:53 43.04401 92.85625 35833 ft 446 kts 283°
2026-05-05 10:54 43.06355 92.77565 35835 ft 447 kts 283°
2026-05-05 10:54 43.08308 92.69473 35844 ft 448 kts 283°
2026-05-05 10:55 43.10261 92.61359 35850 ft 449 kts 283°
2026-05-05 10:55 43.12210 92.53230 35863 ft 450 kts 283°
2026-05-05 10:56 43.14161 92.45062 35872 ft 451 kts 283°
2026-05-05 10:56 43.16094 92.36944 35883 ft 452 kts 283°
2026-05-05 10:57 43.18041 92.28736 35888 ft 453 kts 283°
2026-05-05 10:57 43.19987 92.20498 35901 ft 455 kts 283°
2026-05-05 10:58 43.21864 92.12529 35904 ft 456 kts 283°
2026-05-05 10:58 43.23809 92.04237 35912 ft 457 kts 283°
2026-05-05 10:59 43.25739 91.95981 35915 ft 458 kts 283°
2026-05-05 10:59 43.27680 91.87645 35920 ft 459 kts 283°
2026-05-05 11:00 43.29614 91.79306 35926 ft 459 kts 283°
2026-05-05 11:00 43.31553 91.70918 35932 ft 460 kts 283°
2026-05-05 11:01 43.33472 91.62584 35936 ft 460 kts 283°
2026-05-05 11:01 43.35402 91.54166 35941 ft 463 kts 283°
2026-05-05 11:02 43.37021 91.47086 35952 ft 463 kts 283°
2026-05-05 11:02 43.38933 91.38688 35962 ft 463 kts 283°
2026-05-05 11:03 43.40854 91.30217 35969 ft 464 kts 283°
2026-05-05 11:03 43.42764 91.21743 35977 ft 465 kts 283°
2026-05-05 11:04 43.44680 91.13217 35994 ft 464 kts 283°
2026-05-05 11:04 43.46581 91.04720 36001 ft 464 kts 283°
2026-05-05 11:05 43.48473 90.96226 36012 ft 464 kts 284°
2026-05-05 11:05 43.50363 90.87718 36028 ft 463 kts 284°
2026-05-05 11:06 43.52229 90.79274 36033 ft 465 kts 284°
2026-05-05 11:06 43.54111 90.70732 36042 ft 465 kts 284°
2026-05-05 11:07 43.55982 90.62198 36051 ft 464 kts 284°
2026-05-05 11:07 43.57849 90.53657 36063 ft 467 kts 284°
2026-05-05 11:08 43.59718 90.45066 36082 ft 467 kts 284°
2026-05-05 11:08 43.61571 90.36512 36092 ft 468 kts 284°
2026-05-05 11:09 43.63432 90.27888 36096 ft 469 kts 284°
2026-05-05 11:09 43.65289 90.19253 36103 ft 469 kts 284°
2026-05-05 11:10 43.67141 90.10600 36106 ft 469 kts 284°
2026-05-05 11:10 43.69092 90.01980 36097 ft 470 kts 284°
2026-05-05 11:11 43.71018 89.93389 36097 ft 470 kts 285°
2026-05-05 11:11 43.72994 89.84757 36094 ft 470 kts 285°
2026-05-05 11:12 43.74936 89.76123 36095 ft 470 kts 285°
2026-05-05 11:12 43.76888 89.67474 36089 ft 470 kts 285°
2026-05-05 11:13 43.78823 89.58832 36089 ft 470 kts 285°
2026-05-05 11:13 43.80755 89.50188 36088 ft 470 kts 285°
2026-05-05 11:14 43.82761 89.41613 36085 ft 470 kts 286°
2026-05-05 11:14 43.84753 89.32972 36081 ft 470 kts 285°
2026-05-05 11:15 43.86740 89.24333 36087 ft 470 kts 286°
2026-05-05 11:15 43.88721 89.15697 36077 ft 470 kts 286°
2026-05-05 11:16 43.90695 89.07045 36085 ft 470 kts 286°
2026-05-05 11:16 43.92662 88.98402 36089 ft 470 kts 286°
2026-05-05 11:17 43.94615 88.89776 36089 ft 471 kts 286°
2026-05-05 11:17 43.96576 88.81104 36091 ft 471 kts 287°
2026-05-05 11:18 43.98769 88.72514 36085 ft 472 kts 288°
2026-05-05 11:18 44.00940 88.63921 36086 ft 472 kts 288°
2026-05-05 11:19 44.03124 88.55319 36091 ft 472 kts 288°
2026-05-05 11:19 44.05274 88.46768 36091 ft 472 kts 288°
2026-05-05 11:20 44.07441 88.38149 36086 ft 472 kts 288°
2026-05-05 11:20 44.09603 88.29505 36084 ft 473 kts 288°
2026-05-05 11:21 44.11761 88.20851 36080 ft 474 kts 288°
2026-05-05 11:21 44.13916 88.12167 36070 ft 475 kts 288°
2026-05-05 11:22 44.16071 88.03457 36073 ft 475 kts 288°
2026-05-05 11:22 44.19004 87.95279 36064 ft 479 kts 304°
2026-05-05 11:23 44.23009 87.87828 36035 ft 480 kts 304°
2026-05-05 11:23 44.27024 87.80384 36035 ft 480 kts 305°
2026-05-05 11:24 44.31037 87.72915 36040 ft 480 kts 304°
2026-05-05 11:24 44.35052 87.65452 36028 ft 480 kts 306°
2026-05-05 11:25 44.39133 87.58116 36028 ft 481 kts 306°
2026-05-05 11:25 44.43201 87.50660 36026 ft 482 kts 306°
2026-05-05 11:26 44.47297 87.43192 36023 ft 483 kts 306°
2026-05-05 11:26 44.51384 87.35696 36018 ft 483 kts 306°
2026-05-05 11:27 44.55448 87.28256 36012 ft 483 kts 308°
2026-05-05 11:27 44.59730 87.20904 36014 ft 484 kts 307°
2026-05-05 11:28 44.63945 87.13608 36011 ft 484 kts 308°
2026-05-05 11:28 44.68198 87.06268 36009 ft 484 kts 308°
2026-05-05 11:29 44.72436 86.98906 36008 ft 484 kts 308°
2026-05-05 11:29 44.76693 86.91542 36010 ft 485 kts 308°
2026-05-05 11:30 44.80943 86.84161 36005 ft 485 kts 308°
2026-05-05 11:30 44.85184 86.76756 36005 ft 485 kts 308°
2026-05-05 11:31 44.89357 86.69261 36004 ft 486 kts 308°
2026-05-05 11:31 44.93538 86.61829 36005 ft 486 kts 308°
2026-05-05 11:32 44.97727 86.54316 36005 ft 487 kts 308°
2026-05-05 11:32 45.01924 86.46788 36001 ft 488 kts 308°
2026-05-05 11:33 45.06117 86.39239 36004 ft 488 kts 308°
2026-05-05 11:33 45.10305 86.31684 35997 ft 488 kts 308°
2026-05-05 11:34 45.14473 86.24142 36001 ft 486 kts 308°
2026-05-05 11:34 45.18636 86.16591 35994 ft 486 kts 308°
2026-05-05 11:35 45.22793 86.09030 35992 ft 486 kts 308°
2026-05-05 11:35 45.26949 86.01451 35999 ft 486 kts 309°
2026-05-05 11:36 45.31065 85.93924 35995 ft 485 kts 309°
2026-05-05 11:36 45.35209 85.86326 35992 ft 486 kts 309°
2026-05-05 11:37 45.39347 85.78718 36000 ft 486 kts 309°
2026-05-05 11:37 45.43484 85.71093 35993 ft 486 kts 309°
2026-05-05 11:38 45.47611 85.63464 35994 ft 486 kts 309°
2026-05-05 11:38 45.51732 85.55827 35989 ft 485 kts 309°
2026-05-05 11:39 45.55853 85.48169 35988 ft 486 kts 309°
2026-05-05 11:39 45.59939 85.40556 35989 ft 485 kts 309°
2026-05-05 11:40 45.64039 85.32895 35990 ft 485 kts 309°
2026-05-05 11:40 45.68130 85.25232 35991 ft 484 kts 310°
2026-05-05 11:41 45.72216 85.17576 35981 ft 482 kts 310°
2026-05-05 11:41 45.76286 85.10002 35988 ft 482 kts 310°
2026-05-05 11:42 45.80359 85.02361 35989 ft 482 kts 310°
2026-05-05 11:42 45.84429 84.94726 35988 ft 482 kts 310°
2026-05-05 11:43 45.88489 84.87075 35999 ft 481 kts 310°
2026-05-05 11:43 45.92552 84.79408 35998 ft 482 kts 310°
2026-05-05 11:44 45.96581 84.71779 36011 ft 482 kts 310°
2026-05-05 11:44 46.00634 84.64086 36015 ft 483 kts 310°
2026-05-05 11:45 46.04685 84.56373 36018 ft 483 kts 310°
2026-05-05 11:45 46.08735 84.48643 36032 ft 483 kts 310°
2026-05-05 11:46 46.12777 84.40907 36036 ft 483 kts 310°
2026-05-05 11:46 46.16818 84.33150 36050 ft 483 kts 310°
2026-05-05 11:47 46.20851 84.25387 36053 ft 483 kts 310°
2026-05-05 11:47 46.24856 84.17658 36077 ft 483 kts 310°
2026-05-05 11:48 46.30866 84.05964 36069 ft 482 kts 310°
2026-05-05 11:48 46.34177 83.99491 36063 ft 482 kts 310°
2026-05-05 11:49 46.38167 83.91675 36060 ft 483 kts 309°
2026-05-05 11:49 46.42802 83.82560 36051 ft 483 kts 309°
2026-05-05 11:50 46.46142 83.75978 36048 ft 484 kts 309°
2026-05-05 11:50 46.50124 83.68105 36047 ft 484 kts 309°
2026-05-05 11:51 46.54074 83.60277 36042 ft 484 kts 309°
2026-05-05 11:51 46.58046 83.52381 36042 ft 484 kts 309°
2026-05-05 11:52 46.62015 83.44471 36045 ft 483 kts 309°
2026-05-05 11:52 46.65955 83.36553 36052 ft 483 kts 305°
2026-05-05 11:53 46.67729 83.32434 36280 ft 477 kts 305°
2026-05-05 11:53 46.69503 83.28357 36531 ft 475 kts 305°
2026-05-05 11:53 46.71273 83.24301 36778 ft 473 kts 305°
2026-05-05 11:53 46.73022 83.20250 37031 ft 471 kts 304°
2026-05-05 11:54 46.74734 83.16261 37273 ft 469 kts 304°
2026-05-05 11:54 46.76467 83.12235 37527 ft 467 kts 304°
2026-05-05 11:54 46.78189 83.08243 37776 ft 464 kts 304°
2026-05-05 11:54 46.79901 83.04261 38033 ft 462 kts 304°
2026-05-05 11:55 46.83326 82.96263 38061 ft 467 kts 304°
2026-05-05 11:55 46.86339 82.87791 38075 ft 476 kts 289°
2026-05-05 11:56 46.87593 82.78217 38080 ft 484 kts 281°
2026-05-05 11:56 46.88598 82.68481 38088 ft 489 kts 281°
2026-05-05 11:57 46.89595 82.58588 38080 ft 493 kts 281°
2026-05-05 11:57 46.90598 82.48649 38081 ft 494 kts 281°
2026-05-05 11:58 46.91585 82.38717 38084 ft 494 kts 281°
2026-05-05 11:58 46.92570 82.28756 38084 ft 494 kts 281°
2026-05-05 11:59 46.93537 82.18858 38075 ft 494 kts 281°
2026-05-05 11:59 46.94502 82.08906 38067 ft 492 kts 280°
2026-05-05 12:00 46.95457 81.98968 38058 ft 492 kts 280°
2026-05-05 12:00 46.96401 81.89034 38055 ft 493 kts 280°
2026-05-05 12:01 46.97323 81.79132 38054 ft 494 kts 280°
2026-05-05 12:01 46.98247 81.69155 38049 ft 493 kts 280°
2026-05-05 12:02 46.99159 81.59205 38055 ft 492 kts 280°
2026-05-05 12:02 47.00055 81.49337 38048 ft 491 kts 280°
2026-05-05 12:03 47.00945 81.39427 38052 ft 490 kts 279°
2026-05-05 12:03 47.01828 81.29506 38051 ft 490 kts 279°
2026-05-05 12:04 47.02700 81.19601 38047 ft 490 kts 279°
2026-05-05 12:04 47.03560 81.09748 38052 ft 490 kts 279°
2026-05-05 12:05 47.04417 80.99813 38047 ft 490 kts 279°
2026-05-05 12:05 47.05264 80.89904 38044 ft 490 kts 279°
2026-05-05 12:06 47.06103 80.79987 38044 ft 490 kts 279°
2026-05-05 12:06 47.06933 80.70061 38037 ft 490 kts 279°
2026-05-05 12:07 47.07755 80.60139 38041 ft 489 kts 279°
2026-05-05 12:07 47.08563 80.50275 38035 ft 488 kts 279°
2026-05-05 12:08 47.09364 80.40377 38035 ft 488 kts 279°
2026-05-05 12:08 47.10158 80.30473 38034 ft 487 kts 279°
2026-05-05 12:09 47.10943 80.20573 38037 ft 488 kts 278°
2026-05-05 12:09 47.11714 80.10725 38035 ft 488 kts 278°
2026-05-05 12:10 47.12480 80.00841 38040 ft 487 kts 278°
2026-05-05 12:10 47.13238 79.90946 38039 ft 487 kts 278°
2026-05-05 12:11 47.13994 79.81059 38042 ft 487 kts 278°
2026-05-05 12:11 47.14768 79.71171 38039 ft 487 kts 278°
2026-05-05 12:12 47.15518 79.61276 38052 ft 487 kts 278°
2026-05-05 12:12 47.16269 79.51363 38049 ft 488 kts 278°
2026-05-05 12:13 47.17006 79.41458 38045 ft 487 kts 278°
2026-05-05 12:13 47.17733 79.31617 38050 ft 487 kts 278°
2026-05-05 12:14 47.18455 79.21695 38050 ft 487 kts 278°
2026-05-05 12:14 47.19166 79.11799 38053 ft 486 kts 278°
2026-05-05 12:15 47.19842 79.01897 38053 ft 486 kts 277°
2026-05-05 12:15 47.20520 78.91988 38063 ft 487 kts 277°
2026-05-05 12:16 47.21181 78.82140 38058 ft 487 kts 277°
2026-05-05 12:16 47.21838 78.72230 38060 ft 486 kts 277°
2026-05-05 12:17 47.22487 78.62318 38058 ft 486 kts 277°
2026-05-05 12:17 47.23127 78.52407 38067 ft 486 kts 277°
2026-05-05 12:18 47.23755 78.42563 38066 ft 486 kts 277°
2026-05-05 12:18 47.24378 78.32646 38063 ft 486 kts 277°
2026-05-05 12:19 47.24993 78.22724 38067 ft 486 kts 277°
2026-05-05 12:19 47.25598 78.12817 38068 ft 486 kts 277°
2026-05-05 12:20 47.26192 78.02948 38065 ft 486 kts 277°
2026-05-05 12:20 47.26781 77.93017 38069 ft 487 kts 277°
2026-05-05 12:21 47.27362 77.83082 38072 ft 486 kts 277°
2026-05-05 12:21 47.27934 77.73150 38067 ft 486 kts 276°
2026-05-05 12:22 47.28493 77.63292 38068 ft 486 kts 276°
2026-05-05 12:22 47.29048 77.53362 38067 ft 485 kts 276°
2026-05-05 12:23 47.29594 77.43437 38066 ft 486 kts 276°
2026-05-05 12:23 47.30130 77.33516 38067 ft 486 kts 276°
2026-05-05 12:24 47.30659 77.23579 38067 ft 486 kts 276°
2026-05-05 12:24 47.31178 77.13660 38061 ft 486 kts 276°
2026-05-05 12:25 47.31788 77.03741 38084 ft 484 kts 281°
2026-05-05 12:25 47.32802 76.93916 38070 ft 485 kts 280°
2026-05-05 12:26 47.33796 76.84063 38074 ft 486 kts 280°
2026-05-05 12:26 47.34784 76.74261 38075 ft 487 kts 280°
2026-05-05 12:27 47.35767 76.64366 38076 ft 487 kts 279°
2026-05-05 12:27 47.36745 76.54466 38074 ft 488 kts 279°
2026-05-05 12:28 47.37713 76.44555 38075 ft 487 kts 279°
2026-05-05 12:28 47.38667 76.34723 38070 ft 487 kts 279°
2026-05-05 12:29 47.39617 76.24824 38074 ft 486 kts 279°
2026-05-05 12:29 47.40557 76.14941 38076 ft 486 kts 279°
2026-05-05 12:30 47.41488 76.05052 38072 ft 486 kts 279°
2026-05-05 12:30 47.42411 75.95161 38072 ft 486 kts 279°
2026-05-05 12:31 47.43327 75.85255 38077 ft 486 kts 279°
2026-05-05 12:31 47.44233 75.75357 38079 ft 486 kts 278°
2026-05-05 12:32 47.45130 75.65461 38068 ft 487 kts 278°
2026-05-05 12:32 47.46019 75.55547 38070 ft 486 kts 278°
2026-05-05 12:33 47.46900 75.45640 38071 ft 486 kts 278°
2026-05-05 12:33 47.47765 75.35803 38072 ft 486 kts 278°
2026-05-05 12:34 47.48629 75.25875 38074 ft 487 kts 278°
2026-05-05 12:34 47.49486 75.15934 38077 ft 487 kts 278°
2026-05-05 12:35 47.50334 75.05997 38083 ft 487 kts 278°
2026-05-05 12:35 47.51173 74.96051 38085 ft 487 kts 278°
2026-05-05 12:36 47.52005 74.86099 38091 ft 487 kts 278°
2026-05-05 12:36 47.52825 74.76155 38090 ft 487 kts 277°
2026-05-05 12:37 47.53503 74.67883 38092 ft 487 kts 277°
2026-05-05 12:37 47.54308 74.57934 38095 ft 487 kts 277°
2026-05-05 12:38 47.55107 74.47965 38079 ft 486 kts 277°
2026-05-05 12:38 47.55895 74.38016 38081 ft 486 kts 277°
2026-05-05 12:39 47.56674 74.28072 38082 ft 486 kts 277°
2026-05-05 12:39 47.57438 74.18199 38086 ft 486 kts 277°
2026-05-05 12:40 47.58200 74.08247 38077 ft 486 kts 277°
2026-05-05 12:40 47.58953 73.98300 38073 ft 486 kts 277°
2026-05-05 12:41 47.59697 73.88344 38087 ft 486 kts 277°
2026-05-05 12:41 47.60429 73.78441 38079 ft 486 kts 276°
2026-05-05 12:42 47.61156 73.68479 38084 ft 486 kts 276°
2026-05-05 12:42 47.61875 73.58514 38081 ft 486 kts 276°
2026-05-05 12:43 47.62584 73.48557 38089 ft 485 kts 276°
2026-05-05 12:43 47.63284 73.38609 38076 ft 484 kts 276°
2026-05-05 12:44 47.63974 73.28679 38076 ft 484 kts 276°
2026-05-05 12:44 47.64651 73.18820 38076 ft 483 kts 276°
2026-05-05 12:45 47.65322 73.08907 38077 ft 482 kts 276°
2026-05-05 12:45 47.65984 72.99006 38076 ft 483 kts 276°
2026-05-05 12:46 47.66639 72.89073 38069 ft 483 kts 276°
2026-05-05 12:46 47.67284 72.79152 38086 ft 483 kts 276°
2026-05-05 12:47 47.67922 72.69226 38072 ft 483 kts 275°
2026-05-05 12:47 47.68551 72.59293 38084 ft 483 kts 275°
2026-05-05 12:48 47.69171 72.49359 38081 ft 483 kts 275°
2026-05-05 12:48 47.69783 72.39429 38081 ft 483 kts 275°
2026-05-05 12:49 47.70383 72.29544 38068 ft 483 kts 275°
2026-05-05 12:49 47.70977 72.19606 38072 ft 483 kts 275°
2026-05-05 12:50 47.71564 72.09659 38062 ft 483 kts 275°
2026-05-05 12:50 47.72141 71.99710 38062 ft 483 kts 275°
2026-05-05 12:51 47.72710 71.89762 38059 ft 483 kts 275°
2026-05-05 12:51 47.73212 71.79812 38060 ft 482 kts 273°
2026-05-05 12:52 47.73662 71.69870 38058 ft 482 kts 274°
2026-05-05 12:52 47.74061 71.59985 38053 ft 482 kts 273°
2026-05-05 12:53 47.74467 71.50023 38044 ft 482 kts 273°
2026-05-05 12:53 47.74863 71.40081 38044 ft 481 kts 273°
2026-05-05 12:54 47.75438 71.25183 38040 ft 481 kts 273°
2026-05-05 12:55 47.75808 71.15260 38029 ft 481 kts 273°
2026-05-05 12:55 47.76173 71.05345 38028 ft 481 kts 273°
2026-05-05 12:56 47.76528 70.95420 38035 ft 482 kts 272°
2026-05-05 12:56 47.76875 70.85476 38030 ft 481 kts 272°
2026-05-05 12:57 47.77211 70.75620 38029 ft 481 kts 272°
2026-05-05 12:57 47.77541 70.65672 38024 ft 481 kts 272°
2026-05-05 12:58 47.77861 70.55734 38032 ft 481 kts 272°
2026-05-05 12:58 47.78170 70.45805 38028 ft 481 kts 272°
2026-05-05 12:59 47.78472 70.35871 38019 ft 481 kts 272°
2026-05-05 12:59 47.78763 70.26011 38020 ft 480 kts 272°
2026-05-05 13:00 47.79187 70.11115 38015 ft 481 kts 272°
2026-05-05 13:01 47.79723 69.91224 38163 ft 476 kts 271°
2026-05-05 13:01 47.79850 69.86320 38297 ft 473 kts 271°
2026-05-05 13:01 47.79974 69.81424 38439 ft 473 kts 271°
2026-05-05 13:02 47.80096 69.76533 38677 ft 472 kts 271°
2026-05-05 13:02 47.80216 69.71657 38864 ft 472 kts 271°
2026-05-05 13:02 47.80334 69.66768 39002 ft 473 kts 271°
2026-05-05 13:02 47.80449 69.61923 39004 ft 477 kts 271°
2026-05-05 13:03 47.80678 69.52000 39019 ft 481 kts 271°
2026-05-05 13:03 47.80789 69.47047 39138 ft 475 kts 271°
2026-05-05 13:03 47.80897 69.42153 39241 ft 473 kts 271°
2026-05-05 13:04 47.81002 69.37264 39347 ft 473 kts 271°
2026-05-05 13:04 47.81105 69.32377 39459 ft 473 kts 271°
2026-05-05 13:04 47.81207 69.27489 39567 ft 473 kts 271°
2026-05-05 13:04 47.81306 69.22586 39678 ft 474 kts 271°
2026-05-05 13:05 47.81404 69.17679 39792 ft 475 kts 271°
2026-05-05 13:05 47.81498 69.12816 39903 ft 475 kts 271°
2026-05-05 13:05 47.81592 69.07901 40006 ft 476 kts 271°
2026-05-05 13:05 47.81684 69.02976 39996 ft 478 kts 271°
2026-05-05 13:06 47.81862 68.93055 40000 ft 480 kts 271°
2026-05-05 13:06 47.82026 68.83120 40001 ft 479 kts 269°
2026-05-05 13:07 47.81319 68.73271 40017 ft 480 kts 262°
2026-05-05 13:07 47.80416 68.63422 40014 ft 481 kts 262°
2026-05-05 13:08 47.79521 68.53563 40013 ft 481 kts 262°
2026-05-05 13:08 47.78615 68.43765 40009 ft 481 kts 262°
2026-05-05 13:09 47.77698 68.33914 40011 ft 480 kts 262°
2026-05-05 13:09 47.76775 68.24094 40011 ft 480 kts 262°
2026-05-05 13:10 47.75843 68.14283 40015 ft 479 kts 262°
2026-05-05 13:10 47.74904 68.04477 40004 ft 480 kts 262°
2026-05-05 13:11 47.73954 67.94655 40003 ft 480 kts 262°
2026-05-05 13:11 47.72997 67.84839 40005 ft 480 kts 261°
2026-05-05 13:12 47.71992 67.75091 40034 ft 479 kts 256°
2026-05-05 13:12 47.70547 67.65405 40025 ft 481 kts 257°
2026-05-05 13:13 47.69107 67.55716 40026 ft 480 kts 257°
2026-05-05 13:13 47.67654 67.46051 40019 ft 479 kts 257°
2026-05-05 13:14 47.66198 67.36392 40016 ft 480 kts 257°
2026-05-05 13:14 47.64728 67.26718 40012 ft 480 kts 257°
2026-05-05 13:15 47.63261 67.17110 40010 ft 480 kts 257°
2026-05-05 13:15 47.61776 67.07451 40003 ft 480 kts 257°
2026-05-05 13:16 47.60286 66.97813 40002 ft 479 kts 257°
2026-05-05 13:16 47.58789 66.88187 39999 ft 479 kts 257°
2026-05-05 13:17 47.57282 66.78560 40000 ft 480 kts 257°
2026-05-05 13:17 47.55765 66.68942 39999 ft 479 kts 256°
2026-05-05 13:18 47.54170 66.59355 39995 ft 480 kts 256°
2026-05-05 13:18 47.52595 66.49760 39996 ft 480 kts 256°
2026-05-05 13:19 47.51007 66.40217 39991 ft 480 kts 256°
2026-05-05 13:19 47.49407 66.30626 39995 ft 481 kts 256°
2026-05-05 13:20 47.47795 66.21026 39986 ft 481 kts 256°
2026-05-05 13:20 47.46176 66.11437 39986 ft 480 kts 256°
2026-05-05 13:21 47.44553 66.01873 39979 ft 480 kts 256°
2026-05-05 13:21 47.42918 65.92301 39974 ft 479 kts 256°
2026-05-05 13:22 47.41282 65.82764 39969 ft 479 kts 256°
2026-05-05 13:22 47.39732 65.73259 39971 ft 479 kts 257°
2026-05-05 13:23 47.38144 65.63693 39966 ft 480 kts 256°
2026-05-05 13:23 47.36551 65.54132 39969 ft 480 kts 256°
2026-05-05 13:24 47.34950 65.44558 39961 ft 480 kts 256°
2026-05-05 13:24 47.33339 65.35008 39959 ft 480 kts 256°
2026-05-05 13:25 47.31726 65.25470 39958 ft 479 kts 256°
2026-05-05 13:25 47.30108 65.15976 39950 ft 480 kts 256°
2026-05-05 13:26 47.28478 65.06452 39943 ft 480 kts 256°
2026-05-05 13:26 47.27115 64.98532 39943 ft 480 kts 256°
2026-05-05 13:27 47.25463 64.88994 39942 ft 480 kts 256°
2026-05-05 13:27 47.23804 64.79465 39934 ft 480 kts 256°
2026-05-05 13:28 47.22146 64.69995 39936 ft 480 kts 256°
2026-05-05 13:28 47.20470 64.60474 39938 ft 480 kts 256°
2026-05-05 13:29 47.18787 64.50956 39935 ft 481 kts 256°
2026-05-05 13:29 47.17104 64.41437 39939 ft 481 kts 256°
2026-05-05 13:30 47.15412 64.31934 39927 ft 481 kts 255°
2026-05-05 13:30 47.13711 64.22428 39930 ft 481 kts 255°
2026-05-05 13:31 47.12014 64.12995 39935 ft 480 kts 255°
2026-05-05 13:31 47.10293 64.03473 39938 ft 479 kts 255°
2026-05-05 13:32 47.08583 63.94065 39930 ft 479 kts 255°
2026-05-05 13:32 47.06856 63.84614 39932 ft 479 kts 255°
2026-05-05 13:33 47.05123 63.75176 39927 ft 479 kts 255°
2026-05-05 13:33 47.03383 63.65749 39926 ft 478 kts 255°
2026-05-05 13:34 47.01638 63.56341 39929 ft 479 kts 255°
2026-05-05 13:34 46.99893 63.46981 39929 ft 479 kts 255°
2026-05-05 13:35 46.98125 63.37546 39929 ft 480 kts 255°
2026-05-05 13:35 46.96350 63.28118 39927 ft 479 kts 255°
2026-05-05 13:36 46.94571 63.18719 39926 ft 479 kts 255°
2026-05-05 13:36 46.92785 63.09332 39928 ft 479 kts 255°
2026-05-05 13:37 46.91004 63.00013 39924 ft 479 kts 255°
2026-05-05 13:37 46.89203 62.90640 39924 ft 479 kts 255°
2026-05-05 13:38 46.87393 62.81262 39924 ft 478 kts 255°
2026-05-05 13:38 46.85579 62.71912 39923 ft 477 kts 255°
2026-05-05 13:39 46.83765 62.62607 39918 ft 476 kts 254°
2026-05-05 13:39 46.81944 62.53310 39916 ft 477 kts 254°
2026-05-05 13:40 46.80125 62.44063 39917 ft 476 kts 254°
2026-05-05 13:40 46.78288 62.34770 39920 ft 477 kts 254°
2026-05-05 13:41 46.76439 62.25457 39925 ft 477 kts 254°
2026-05-05 13:41 46.74587 62.16178 39915 ft 476 kts 254°
2026-05-05 13:42 46.72724 62.06885 39907 ft 476 kts 254°
2026-05-05 13:42 46.70863 61.97645 39908 ft 475 kts 254°
2026-05-05 13:43 46.69006 61.88473 39903 ft 475 kts 254°
2026-05-05 13:43 46.67128 61.79235 39906 ft 475 kts 254°
2026-05-05 13:44 46.65245 61.70018 39903 ft 475 kts 254°
2026-05-05 13:44 46.63357 61.60815 39909 ft 475 kts 254°
2026-05-05 13:45 46.61462 61.51626 39909 ft 474 kts 254°
2026-05-05 13:45 46.59560 61.42444 39907 ft 474 kts 253°
2026-05-05 13:46 46.57651 61.33265 39911 ft 474 kts 253°
2026-05-05 13:46 46.55734 61.24097 39906 ft 474 kts 253°
2026-05-05 13:47 46.53821 61.14985 39905 ft 474 kts 253°
2026-05-05 13:47 46.51886 61.05810 39900 ft 475 kts 253°
2026-05-05 13:48 46.49945 60.96648 39898 ft 475 kts 253°
2026-05-05 13:48 46.47995 60.87484 39898 ft 475 kts 253°
2026-05-05 13:49 46.46051 60.78387 39902 ft 475 kts 253°
2026-05-05 13:49 46.44087 60.69238 39899 ft 475 kts 253°
2026-05-05 13:50 46.42113 60.60084 39906 ft 475 kts 253°
2026-05-05 13:50 46.40131 60.50933 39906 ft 475 kts 253°
2026-05-05 13:51 46.38143 60.41795 39907 ft 475 kts 253°
2026-05-05 13:51 46.36150 60.32674 39903 ft 475 kts 253°
2026-05-05 13:52 46.34162 60.23615 39907 ft 475 kts 252°
2026-05-05 13:52 46.32156 60.14515 39907 ft 475 kts 252°
2026-05-05 13:53 46.30140 60.05406 39908 ft 475 kts 252°
2026-05-05 13:53 46.28116 59.96304 39905 ft 475 kts 252°
2026-05-05 13:54 46.26084 59.87203 39901 ft 475 kts 252°
2026-05-05 13:54 46.24045 59.78113 39894 ft 475 kts 252°
2026-05-05 13:55 46.21997 59.69024 39896 ft 476 kts 252°
2026-05-05 13:55 46.19926 59.59945 39895 ft 476 kts 252°
2026-05-05 13:56 46.17856 59.50881 39894 ft 475 kts 252°
2026-05-05 13:56 46.15777 59.41829 39890 ft 475 kts 252°
2026-05-05 13:57 46.13703 59.32831 39889 ft 476 kts 252°
2026-05-05 13:57 46.11609 59.23785 39891 ft 476 kts 252°
2026-05-05 13:58 46.09508 59.14746 39885 ft 474 kts 252°
2026-05-05 13:58 46.07403 59.05730 39887 ft 474 kts 252°
2026-05-05 13:59 46.04241 58.92252 39881 ft 473 kts 252°
2026-05-05 14:00 46.01419 58.80292 39877 ft 473 kts 251°
2026-05-05 14:00 45.98937 58.69829 39876 ft 472 kts 251°
2026-05-05 14:01 45.96809 58.60897 39872 ft 472 kts 251°
2026-05-05 14:01 45.94687 58.52027 39867 ft 472 kts 251°
2026-05-05 14:02 45.92544 58.43101 39864 ft 473 kts 251°
2026-05-05 14:02 45.90388 58.34161 39861 ft 473 kts 251°
2026-05-05 14:03 45.88227 58.25232 39850 ft 473 kts 251°
2026-05-05 14:03 45.86062 58.16329 39851 ft 472 kts 251°
2026-05-05 14:04 45.83893 58.07439 39845 ft 471 kts 251°
2026-05-05 14:04 45.81735 57.98629 39841 ft 469 kts 251°
2026-05-05 14:05 45.79569 57.89823 39835 ft 468 kts 251°
2026-05-05 14:05 45.77397 57.81025 39832 ft 469 kts 251°
2026-05-05 14:06 45.75215 57.72223 39834 ft 469 kts 250°
2026-05-05 14:06 45.73039 57.63475 39829 ft 470 kts 250°
2026-05-05 14:07 45.70833 57.54647 39834 ft 471 kts 250°
2026-05-05 14:07 45.68624 57.45838 39825 ft 470 kts 250°
2026-05-05 14:08 45.66408 57.37037 39818 ft 470 kts 250°
2026-05-05 14:08 45.64185 57.28240 39820 ft 471 kts 250°
2026-05-05 14:09 45.61948 57.19422 39821 ft 471 kts 250°
2026-05-05 14:09 45.59710 57.10632 39818 ft 470 kts 250°
2026-05-05 14:10 45.57467 57.01858 39821 ft 470 kts 250°
2026-05-05 14:10 45.55215 56.93082 39822 ft 471 kts 250°
2026-05-05 14:11 45.52967 56.84357 39817 ft 471 kts 250°
2026-05-05 14:11 45.50702 56.75593 39819 ft 471 kts 250°
2026-05-05 14:12 45.48428 56.66832 39821 ft 470 kts 249°
2026-05-05 14:12 45.46538 56.59574 39818 ft 470 kts 249°
2026-05-05 14:13 45.44257 56.50844 39819 ft 470 kts 249°
2026-05-05 14:13 45.41971 56.42129 39821 ft 469 kts 249°
2026-05-05 14:14 45.39684 56.33440 39821 ft 469 kts 249°
2026-05-05 14:14 45.37408 56.24823 39817 ft 467 kts 249°
2026-05-05 14:15 45.35113 56.16171 39820 ft 467 kts 249°
2026-05-05 14:15 45.32812 56.07526 39817 ft 468 kts 249°
2026-05-05 14:16 45.30502 55.98878 39818 ft 468 kts 249°
2026-05-05 14:16 45.28183 55.90226 39818 ft 468 kts 249°
2026-05-05 14:17 45.25860 55.81593 39817 ft 468 kts 248°
2026-05-05 14:17 45.23533 55.72976 39816 ft 467 kts 248°
2026-05-05 14:18 45.21214 55.64420 39816 ft 467 kts 248°
2026-05-05 14:18 45.18876 55.55824 39811 ft 467 kts 248°
2026-05-05 14:19 45.16533 55.47237 39820 ft 467 kts 248°
2026-05-05 14:19 45.14185 55.38667 39808 ft 467 kts 248°
2026-05-05 14:20 45.11828 55.30091 39814 ft 467 kts 248°
2026-05-05 14:20 45.09341 55.21597 39834 ft 466 kts 240°
2026-05-05 14:21 45.05504 55.14250 39828 ft 466 kts 225°
2026-05-05 14:21 45.00750 55.08022 39819 ft 465 kts 224°
2026-05-05 14:22 44.95971 55.01839 39826 ft 466 kts 224°
2026-05-05 14:22 44.91219 54.95692 39819 ft 466 kts 224°
2026-05-05 14:23 44.86428 54.89513 39824 ft 465 kts 224°
2026-05-05 14:23 44.81645 54.83360 39829 ft 465 kts 224°
2026-05-05 14:24 44.76857 54.77213 39828 ft 465 kts 223°
2026-05-05 14:24 44.72063 54.71073 39827 ft 466 kts 223°
2026-05-05 14:25 44.67312 54.64966 39831 ft 464 kts 227°
2026-05-05 14:25 44.63362 54.57829 39826 ft 464 kts 235°
2026-05-05 14:26 44.59658 54.50411 39833 ft 463 kts 235°
2026-05-05 14:26 44.55970 54.43000 39843 ft 463 kts 235°
2026-05-05 14:27 44.52264 54.35597 39841 ft 463 kts 234°
2026-05-05 14:27 44.48567 54.28216 39847 ft 463 kts 234°
2026-05-05 14:28 44.44865 54.20852 39844 ft 462 kts 234°
2026-05-05 14:28 44.41163 54.13502 39851 ft 462 kts 234°
2026-05-05 14:29 44.37456 54.06165 39852 ft 462 kts 234°
2026-05-05 14:29 44.33745 53.98835 39857 ft 461 kts 234°
2026-05-05 14:30 44.30058 53.91573 39858 ft 461 kts 234°
2026-05-05 14:30 44.26340 53.84267 39860 ft 461 kts 234°
2026-05-05 14:31 44.22617 53.76970 39864 ft 462 kts 234°
2026-05-05 14:31 44.18890 53.69685 39865 ft 462 kts 234°
2026-05-05 14:32 44.15154 53.62398 39868 ft 461 kts 234°
2026-05-05 14:32 44.11411 53.55117 39867 ft 462 kts 234°
2026-05-05 14:33 44.07659 53.47837 39871 ft 462 kts 233°
2026-05-05 14:33 44.03904 53.40568 39872 ft 462 kts 233°
2026-05-05 14:34 44.00177 53.33372 39869 ft 462 kts 233°
2026-05-05 14:34 43.96420 53.26136 39878 ft 462 kts 233°
2026-05-05 14:35 43.92664 53.18919 39877 ft 461 kts 233°
2026-05-05 14:35 43.88902 53.11710 39879 ft 461 kts 233°
2026-05-05 14:36 43.85143 53.04527 39879 ft 460 kts 233°
2026-05-05 14:36 43.81384 52.97363 39883 ft 459 kts 233°
2026-05-05 14:37 43.77632 52.90228 39884 ft 458 kts 233°
2026-05-05 14:37 43.73906 52.83161 39888 ft 458 kts 233°
2026-05-05 14:38 43.70146 52.76046 39885 ft 458 kts 233°
2026-05-05 14:38 43.66384 52.68946 39886 ft 458 kts 233°
2026-05-05 14:39 43.62607 52.61851 39887 ft 458 kts 233°
2026-05-05 14:39 43.58821 52.54775 39892 ft 459 kts 233°
2026-05-05 14:40 43.55028 52.47688 39896 ft 459 kts 233°
2026-05-05 14:40 43.51230 52.40619 39898 ft 459 kts 232°
2026-05-05 14:41 43.47426 52.33551 39902 ft 460 kts 232°
2026-05-05 14:41 43.43642 52.26537 39905 ft 460 kts 232°
2026-05-05 14:42 43.39826 52.19480 39909 ft 459 kts 232°
2026-05-05 14:42 43.36008 52.12439 39908 ft 459 kts 232°
2026-05-05 14:43 43.32184 52.05402 39913 ft 460 kts 232°
2026-05-05 14:43 43.28348 51.98360 39913 ft 460 kts 232°
2026-05-05 14:44 43.24511 51.91332 39913 ft 461 kts 232°
2026-05-05 14:44 43.20664 51.84303 39916 ft 460 kts 232°
2026-05-05 14:45 43.16820 51.77298 39916 ft 460 kts 232°
2026-05-05 14:45 43.12973 51.70302 39917 ft 459 kts 232°
2026-05-05 14:46 43.09121 51.63315 39914 ft 459 kts 232°
2026-05-05 14:46 43.05292 51.56384 39917 ft 459 kts 232°
2026-05-05 14:47 43.01436 51.49423 39915 ft 459 kts 232°
2026-05-05 14:47 42.97575 51.42467 39918 ft 459 kts 232°
2026-05-05 14:48 42.93711 51.35522 39918 ft 459 kts 232°
2026-05-05 14:48 42.89845 51.28590 39924 ft 458 kts 232°
2026-05-05 14:49 42.85997 51.21709 39930 ft 459 kts 232°
2026-05-05 14:49 42.82121 51.14792 39936 ft 459 kts 232°
2026-05-05 14:50 42.78236 51.07873 39937 ft 459 kts 232°
2026-05-05 14:50 42.74355 51.00979 39941 ft 459 kts 231°
2026-05-05 14:51 42.70470 50.94094 39939 ft 459 kts 231°
2026-05-05 14:51 42.66601 50.87254 39942 ft 459 kts 231°
2026-05-05 14:52 42.62708 50.80386 39946 ft 458 kts 231°
2026-05-05 14:52 42.58811 50.73526 39944 ft 459 kts 231°
2026-05-05 14:53 42.54913 50.66683 39945 ft 459 kts 231°
2026-05-05 14:53 42.51002 50.59831 39949 ft 459 kts 231°
2026-05-05 14:54 42.47087 50.52987 39946 ft 459 kts 231°
2026-05-05 14:54 42.43213 50.46177 39951 ft 458 kts 234°
2026-05-05 14:55 42.39511 50.39144 39947 ft 459 kts 233°
2026-05-05 14:55 42.35786 50.32113 39953 ft 460 kts 233°
2026-05-05 14:56 42.32059 50.25079 39956 ft 460 kts 233°
2026-05-05 14:56 42.28314 50.18037 39958 ft 460 kts 233°
2026-05-05 14:57 42.24601 50.11064 39956 ft 460 kts 233°
2026-05-05 14:57 42.20860 50.04059 39959 ft 460 kts 233°
2026-05-05 14:58 42.17114 49.97060 39961 ft 459 kts 233°
2026-05-05 14:58 42.13374 49.90089 39959 ft 459 kts 232°
2026-05-05 14:59 42.10264 49.84304 39961 ft 459 kts 232°
2026-05-05 14:59 42.06509 49.77335 39953 ft 459 kts 232°
2026-05-05 15:00 42.02752 49.70376 39964 ft 460 kts 232°
2026-05-05 15:00 41.98985 49.63417 39965 ft 460 kts 232°
2026-05-05 15:01 41.95242 49.56517 39965 ft 460 kts 232°
2026-05-05 15:01 41.91464 49.49568 39957 ft 459 kts 232°
2026-05-05 15:02 41.87697 49.42654 39964 ft 458 kts 232°
2026-05-05 15:02 41.83933 49.35763 39967 ft 457 kts 232°
2026-05-05 15:03 41.80221 49.28828 39975 ft 458 kts 234°
2026-05-05 15:03 41.76681 49.21695 39960 ft 460 kts 234°
2026-05-05 15:04 41.73152 49.14620 39964 ft 460 kts 234°
2026-05-05 15:04 41.69596 49.07497 39966 ft 459 kts 234°
2026-05-05 15:05 41.64253 48.96834 39970 ft 459 kts 234°
2026-05-05 15:06 41.60720 48.89802 39971 ft 458 kts 234°
2026-05-05 15:06 41.57172 48.82757 39973 ft 458 kts 234°
2026-05-05 15:07 41.53601 48.75683 39974 ft 460 kts 234°
2026-05-05 15:07 41.49848 48.68784 39970 ft 460 kts 231°
2026-05-05 15:08 41.46032 48.61940 39972 ft 459 kts 231°
2026-05-05 15:08 41.42207 48.55111 39966 ft 460 kts 231°
2026-05-05 15:09 41.38457 48.48210 39962 ft 461 kts 232°
2026-05-05 15:09 41.34691 48.41287 39961 ft 461 kts 232°
2026-05-05 15:10 41.30927 48.34412 39951 ft 462 kts 232°
2026-05-05 15:10 41.27149 48.27500 39944 ft 462 kts 232°
2026-05-05 15:11 41.23353 48.20589 39936 ft 464 kts 232°
2026-05-05 15:11 41.19540 48.13650 39933 ft 466 kts 232°
2026-05-05 15:12 41.15770 48.06638 39949 ft 467 kts 238°
2026-05-05 15:12 41.13230 47.98650 39950 ft 474 kts 253°
2026-05-05 15:13 41.12520 47.89888 39932 ft 484 kts 269°
2026-05-05 15:13 41.13610 47.80976 39920 ft 492 kts 276°
2026-05-05 15:14 41.14985 47.72079 39922 ft 493 kts 276°
2026-05-05 15:14 41.16370 47.63227 39923 ft 492 kts 276°
2026-05-05 15:15 41.17740 47.54312 39925 ft 493 kts 276°
2026-05-05 15:15 41.19112 47.45408 39932 ft 492 kts 276°
2026-05-05 15:16 41.20476 47.36471 39931 ft 492 kts 276°
2026-05-05 15:16 41.21835 47.27531 39934 ft 494 kts 276°
2026-05-05 15:17 41.23178 47.18650 39941 ft 492 kts 276°
2026-05-05 15:17 41.24520 47.09723 39940 ft 491 kts 276°
2026-05-05 15:18 41.25853 47.00803 39943 ft 492 kts 276°
2026-05-05 15:18 41.27170 46.91940 39943 ft 491 kts 276°
2026-05-05 15:19 41.28487 46.83028 39935 ft 491 kts 276°
2026-05-05 15:19 41.29800 46.74096 39947 ft 492 kts 276°
2026-05-05 15:20 41.31053 46.65159 39938 ft 492 kts 275°
2026-05-05 15:20 41.32305 46.56215 39938 ft 492 kts 275°
2026-05-05 15:21 41.33557 46.47240 39932 ft 492 kts 275°
2026-05-05 15:21 41.34786 46.38334 39932 ft 493 kts 275°
2026-05-05 15:22 41.36024 46.29348 39917 ft 494 kts 275°
2026-05-05 15:22 41.37254 46.20339 39915 ft 495 kts 275°
2026-05-05 15:23 41.38480 46.11326 39916 ft 495 kts 275°
2026-05-05 15:23 41.39699 46.02289 39910 ft 495 kts 275°
2026-05-05 15:24 41.40911 45.93266 39911 ft 495 kts 275°
2026-05-05 15:24 41.42111 45.84260 39909 ft 495 kts 275°
2026-05-05 15:25 41.43310 45.75220 39909 ft 496 kts 275°
2026-05-05 15:25 41.44504 45.66150 39905 ft 496 kts 275°
2026-05-05 15:26 41.45682 45.57152 39909 ft 496 kts 275°
2026-05-05 15:26 41.46860 45.48090 39908 ft 496 kts 275°
2026-05-05 15:27 41.48033 45.39012 39911 ft 496 kts 275°
2026-05-05 15:27 41.48888 45.29920 39917 ft 494 kts 271°
2026-05-05 15:28 41.49646 45.20787 39913 ft 494 kts 271°
2026-05-05 15:28 41.50378 45.11720 39920 ft 495 kts 271°
2026-05-05 15:29 41.51115 45.02586 39925 ft 495 kts 271°
2026-05-05 15:29 41.51843 44.93443 39925 ft 495 kts 271°
2026-05-05 15:30 41.52564 44.84300 39926 ft 495 kts 271°
2026-05-05 15:30 41.53278 44.75150 39927 ft 495 kts 271°
2026-05-05 15:31 41.53985 44.65995 39939 ft 496 kts 271°
2026-05-05 15:31 41.54685 44.56835 39956 ft 496 kts 271°
2026-05-05 15:32 41.55377 44.47675 39963 ft 496 kts 271°
2026-05-05 15:32 41.56058 44.38570 39967 ft 496 kts 271°
2026-05-05 15:33 41.56737 44.29399 39973 ft 496 kts 271°
2026-05-05 15:33 41.56872 44.20249 39980 ft 490 kts 258°
2026-05-05 15:34 41.55890 44.11232 39977 ft 491 kts 258°
2026-05-05 15:34 41.54889 44.02206 39979 ft 491 kts 258°
2026-05-05 15:35 41.53881 43.93170 39980 ft 492 kts 258°
2026-05-05 15:35 41.52872 43.84173 39978 ft 492 kts 258°
2026-05-05 15:36 41.51847 43.75127 39972 ft 493 kts 258°
2026-05-05 15:36 41.50816 43.66075 39973 ft 494 kts 258°
2026-05-05 15:37 41.49780 43.57055 39963 ft 494 kts 258°
2026-05-05 15:37 41.48731 43.47977 39962 ft 494 kts 258°
2026-05-05 15:38 41.47675 43.38907 39964 ft 494 kts 258°
2026-05-05 15:38 41.46613 43.29852 39957 ft 494 kts 258°
2026-05-05 15:39 41.45543 43.20790 39961 ft 495 kts 258°
2026-05-05 15:39 41.44470 43.11761 39960 ft 495 kts 258°
2026-05-05 15:40 41.43384 43.02692 39962 ft 495 kts 258°
2026-05-05 15:40 41.42291 42.93617 39963 ft 496 kts 258°
2026-05-05 15:41 41.41194 42.84587 39969 ft 497 kts 258°
2026-05-05 15:41 41.40085 42.75506 39968 ft 497 kts 258°
2026-05-05 15:42 41.38965 42.66406 39980 ft 496 kts 258°
2026-05-05 15:42 41.37842 42.57331 39985 ft 496 kts 258°
2026-05-05 15:43 41.36710 42.48255 39979 ft 497 kts 258°
2026-05-05 15:43 41.35572 42.39184 39991 ft 497 kts 258°
2026-05-05 15:44 41.34432 42.30164 39997 ft 497 kts 258°
2026-05-05 15:44 41.33276 42.21074 39997 ft 497 kts 257°
2026-05-05 15:45 41.32113 42.11985 39997 ft 497 kts 257°
2026-05-05 15:45 41.30944 42.02909 40001 ft 498 kts 257°
2026-05-05 15:46 41.29766 41.93825 40009 ft 498 kts 257°
2026-05-05 15:46 41.28574 41.84794 40008 ft 498 kts 257°
2026-05-05 15:47 41.27372 41.75714 40014 ft 499 kts 257°
2026-05-05 15:47 41.26161 41.66627 40014 ft 499 kts 257°
2026-05-05 15:48 41.24941 41.57534 40016 ft 499 kts 257°
2026-05-05 15:48 41.23723 41.48509 40015 ft 499 kts 257°
2026-05-05 15:49 41.22488 41.39419 40015 ft 500 kts 257°
2026-05-05 15:49 41.21455 41.31853 40023 ft 501 kts 257°
2026-05-05 15:50 41.20205 41.22753 40025 ft 501 kts 257°
2026-05-05 15:50 41.18948 41.13659 40020 ft 501 kts 257°
2026-05-05 15:51 41.17682 41.04552 40029 ft 501 kts 257°
2026-05-05 15:51 41.16409 40.95453 40030 ft 501 kts 257°
2026-05-05 15:52 41.15140 40.86432 40026 ft 500 kts 257°
2026-05-05 15:52 41.13857 40.77366 40031 ft 500 kts 257°
2026-05-05 15:53 41.12564 40.68285 40031 ft 500 kts 257°
2026-05-05 15:53 41.11261 40.59189 40030 ft 501 kts 257°
2026-05-05 15:54 41.09962 40.50172 40038 ft 501 kts 257°
2026-05-05 15:54 41.08644 40.41082 40044 ft 503 kts 257°
2026-05-05 15:55 41.07319 40.31985 40044 ft 502 kts 257°
2026-05-05 15:55 41.05985 40.22889 40045 ft 503 kts 257°
2026-05-05 15:56 41.04643 40.13783 40050 ft 504 kts 257°
2026-05-05 15:56 41.03291 40.04664 40055 ft 503 kts 257°
2026-05-05 15:57 41.01935 39.95576 40055 ft 503 kts 257°
2026-05-05 15:57 41.00582 39.86558 40056 ft 502 kts 257°
2026-05-05 15:58 40.99813 39.77361 40068 ft 508 kts 272°
2026-05-05 15:58 41.00629 39.68027 40056 ft 511 kts 275°
2026-05-05 15:59 41.01542 39.58691 40052 ft 511 kts 275°
2026-05-05 15:59 41.02415 39.49349 40046 ft 511 kts 275°
2026-05-05 16:00 41.03296 39.40045 40045 ft 512 kts 275°
2026-05-05 16:00 41.04164 39.30679 40045 ft 512 kts 275°
2026-05-05 16:01 41.05028 39.21328 40048 ft 511 kts 275°
2026-05-05 16:01 41.05882 39.11973 40050 ft 511 kts 275°
2026-05-05 16:02 41.06752 39.02637 40050 ft 510 kts 275°
2026-05-05 16:02 41.07607 38.93313 40043 ft 509 kts 275°
2026-05-05 16:03 41.08455 38.83982 40046 ft 509 kts 275°
2026-05-05 16:03 41.09291 38.74717 40044 ft 509 kts 275°
2026-05-05 16:04 41.10118 38.65392 40045 ft 509 kts 274°
2026-05-05 16:04 41.10913 38.56055 40043 ft 510 kts 274°
2026-05-05 16:05 41.11697 38.46690 40041 ft 510 kts 274°
2026-05-05 16:05 41.12476 38.37333 40043 ft 510 kts 274°
2026-05-05 16:06 41.13240 38.28032 40046 ft 510 kts 274°
2026-05-05 16:06 41.14009 38.18666 40052 ft 511 kts 274°
2026-05-05 16:07 41.14775 38.09272 40051 ft 512 kts 274°
2026-05-05 16:07 41.15531 37.99874 40053 ft 513 kts 274°
2026-05-05 16:08 41.16284 37.90433 40050 ft 514 kts 274°
2026-05-05 16:08 41.17065 37.81004 40053 ft 514 kts 275°
2026-05-05 16:09 41.17883 37.71588 40053 ft 513 kts 275°
2026-05-05 16:09 41.18657 37.62184 40050 ft 512 kts 274°
2026-05-05 16:10 41.19197 37.52821 40057 ft 513 kts 275°
2026-05-05 16:10 41.19912 37.43377 40049 ft 513 kts 274°
2026-05-05 16:11 41.20600 37.33946 40046 ft 513 kts 274°
2026-05-05 16:12 41.22009 37.15080 40047 ft 514 kts 275°
2026-05-05 16:13 41.23838 36.91474 40046 ft 516 kts 275°
2026-05-05 16:13 41.24551 36.82003 40051 ft 515 kts 274°
2026-05-05 16:14 41.25953 36.63097 40056 ft 513 kts 274°
2026-05-05 16:15 41.26898 36.53707 40080 ft 514 kts 285°
2026-05-05 16:15 41.29162 36.44643 40043 ft 517 kts 288°
2026-05-05 16:16 41.33750 36.26614 40044 ft 515 kts 288°
2026-05-05 16:17 41.37174 36.13072 40034 ft 515 kts 288°
2026-05-05 16:18 41.40588 35.99483 40033 ft 515 kts 288°
2026-05-05 16:19 41.43981 35.85890 40031 ft 516 kts 288°
2026-05-05 16:19 41.47364 35.72259 40029 ft 516 kts 288°
2026-05-05 16:20 41.51849 35.54071 40038 ft 517 kts 288°
2026-05-05 16:22 41.57434 35.31218 40037 ft 518 kts 288°
2026-05-05 16:23 41.61863 35.12935 40035 ft 518 kts 288°
2026-05-05 16:23 41.65172 34.99178 40034 ft 518 kts 288°
2026-05-05 16:24 41.67370 34.89995 40037 ft 518 kts 288°
2026-05-05 16:25 41.70657 34.76193 40041 ft 519 kts 288°
2026-05-05 16:25 41.73915 34.62428 40043 ft 519 kts 288°
2026-05-05 16:26 41.78245 34.44009 40044 ft 518 kts 288°
2026-05-05 16:27 41.80396 34.34801 40047 ft 518 kts 288°
2026-05-05 16:27 41.82543 34.25570 40049 ft 518 kts 288°
2026-05-05 16:28 41.84681 34.16346 40047 ft 518 kts 288°
2026-05-05 16:28 41.86808 34.07126 40053 ft 517 kts 288°
2026-05-05 16:29 41.88928 33.97900 40053 ft 517 kts 288°
2026-05-05 16:29 41.91029 33.88718 40056 ft 517 kts 288°
2026-05-05 16:30 41.93135 33.79477 40058 ft 517 kts 288°
2026-05-05 16:30 41.95220 33.70235 40055 ft 516 kts 284°
2026-05-05 16:31 41.97015 33.60902 40058 ft 516 kts 286°
2026-05-05 16:31 41.98832 33.51565 40051 ft 516 kts 285°
2026-05-05 16:32 42.00608 33.42216 40055 ft 517 kts 285°
2026-05-05 16:32 42.02403 33.32861 40052 ft 516 kts 285°
2026-05-05 16:33 42.04169 33.23516 40051 ft 515 kts 285°
2026-05-05 16:33 42.05928 33.14228 40053 ft 515 kts 285°
2026-05-05 16:34 42.07758 33.04912 40054 ft 514 kts 287°
2026-05-05 16:34 42.09623 32.95609 40055 ft 515 kts 286°
2026-05-05 16:35 42.11533 32.86327 40046 ft 514 kts 287°
2026-05-05 16:35 42.13417 32.77030 40045 ft 514 kts 287°
2026-05-05 16:36 42.15297 32.67721 40051 ft 514 kts 287°
2026-05-05 16:36 42.17173 32.58411 40038 ft 514 kts 287°
2026-05-05 16:37 42.19029 32.49110 40040 ft 514 kts 287°
2026-05-05 16:37 42.20882 32.39808 40037 ft 513 kts 286°
2026-05-05 16:38 42.22708 32.30578 40040 ft 512 kts 286°
2026-05-05 16:38 42.24542 32.21285 40032 ft 512 kts 286°
2026-05-05 16:39 42.26062 32.13510 40034 ft 511 kts 286°
2026-05-05 16:39 42.27867 32.04274 40031 ft 512 kts 286°
2026-05-05 16:40 42.29685 31.94975 40034 ft 512 kts 286°
2026-05-05 16:40 42.31489 31.85667 40032 ft 513 kts 286°
2026-05-05 16:41 42.33298 31.76315 40030 ft 514 kts 286°
2026-05-05 16:41 42.35093 31.66971 40036 ft 512 kts 286°
2026-05-05 16:42 42.36880 31.57639 40038 ft 511 kts 286°
2026-05-05 16:42 42.38653 31.48328 40037 ft 511 kts 286°
2026-05-05 16:43 42.40405 31.39087 40035 ft 510 kts 286°
2026-05-05 16:43 42.42160 31.29785 40042 ft 510 kts 286°
2026-05-05 16:44 42.43906 31.20480 40045 ft 510 kts 286°
2026-05-05 16:44 42.45643 31.11184 40045 ft 508 kts 286°
2026-05-05 16:45 42.47368 31.01889 40043 ft 508 kts 286°
2026-05-05 16:45 42.49070 30.92668 40042 ft 508 kts 286°
2026-05-05 16:46 42.50778 30.83378 40041 ft 508 kts 286°
2026-05-05 16:46 42.52477 30.74087 40046 ft 507 kts 286°
2026-05-05 16:47 42.54167 30.64797 40049 ft 507 kts 286°
2026-05-05 16:47 42.55851 30.55494 40050 ft 507 kts 286°
2026-05-05 16:48 42.57525 30.46208 40051 ft 507 kts 286°
2026-05-05 16:48 42.59180 30.36970 40049 ft 506 kts 286°
2026-05-05 16:49 42.61384 30.27963 40072 ft 500 kts 302°
2026-05-05 16:49 42.65559 30.20540 40090 ft 494 kts 318°
2026-05-05 16:50 42.70498 30.14003 40074 ft 495 kts 318°
2026-05-05 16:50 42.75457 30.07473 40071 ft 496 kts 317°
2026-05-05 16:51 42.80368 30.00958 40063 ft 495 kts 317°
2026-05-05 16:51 42.85325 29.94387 40069 ft 496 kts 317°
2026-05-05 16:52 42.90286 29.87782 40071 ft 497 kts 317°
2026-05-05 16:52 42.95235 29.81185 40072 ft 498 kts 317°
2026-05-05 16:53 43.00160 29.74600 40071 ft 499 kts 317°
2026-05-05 16:53 43.05119 29.67957 40069 ft 499 kts 317°
2026-05-05 16:54 43.10068 29.61309 40072 ft 498 kts 317°
2026-05-05 16:54 43.15004 29.54664 40069 ft 497 kts 317°
2026-05-05 16:55 43.19937 29.48007 40066 ft 497 kts 317°
2026-05-05 16:55 43.24873 29.41330 40060 ft 497 kts 317°
2026-05-05 16:56 43.29796 29.34653 40059 ft 497 kts 317°
2026-05-05 16:56 43.34687 29.28005 40059 ft 497 kts 317°
2026-05-05 16:57 43.39611 29.21295 40062 ft 498 kts 317°
2026-05-05 16:57 43.44524 29.14585 40061 ft 498 kts 317°
2026-05-05 16:58 43.49439 29.07856 40059 ft 497 kts 316°
2026-05-05 16:58 43.54347 29.01120 40059 ft 497 kts 316°
2026-05-05 16:59 43.59217 28.94418 40063 ft 498 kts 316°
2026-05-05 16:59 43.64119 28.87658 40060 ft 498 kts 316°
2026-05-05 17:00 43.69020 28.80882 40063 ft 498 kts 316°
2026-05-05 17:00 43.73904 28.74113 40057 ft 497 kts 316°
2026-05-05 17:01 43.78782 28.67336 40053 ft 498 kts 316°
2026-05-05 17:01 43.83665 28.60534 40047 ft 497 kts 316°
2026-05-05 17:02 43.88513 28.53766 40052 ft 496 kts 316°
2026-05-05 17:02 43.93387 28.46944 40048 ft 498 kts 316°
2026-05-05 17:03 43.98261 28.40104 40045 ft 497 kts 316°
2026-05-05 17:03 44.03125 28.33263 40040 ft 498 kts 316°
2026-05-05 17:04 44.07994 28.26397 40032 ft 499 kts 316°
2026-05-05 17:04 44.12837 28.19551 40033 ft 500 kts 315°
2026-05-05 17:05 44.17712 28.12642 40032 ft 499 kts 315°
2026-05-05 17:05 44.22573 28.05736 40034 ft 498 kts 315°
2026-05-05 17:06 44.27427 27.98822 40023 ft 498 kts 315°
2026-05-05 17:06 44.32245 27.91943 40018 ft 498 kts 315°
2026-05-05 17:07 44.37095 27.85000 40017 ft 498 kts 315°
2026-05-05 17:07 44.41923 27.78071 40013 ft 497 kts 315°
2026-05-05 17:08 44.46720 27.71172 40015 ft 496 kts 315°
2026-05-05 17:08 44.51525 27.64240 40011 ft 495 kts 315°
2026-05-05 17:09 44.56328 27.57296 40005 ft 496 kts 315°
2026-05-05 17:09 44.61125 27.50343 40003 ft 495 kts 315°
2026-05-05 17:10 44.65908 27.43392 40001 ft 495 kts 314°
2026-05-05 17:10 44.70689 27.36426 39997 ft 495 kts 314°
2026-05-05 17:11 44.75442 27.29484 39994 ft 495 kts 314°
2026-05-05 17:11 44.80220 27.22487 39991 ft 495 kts 314°
2026-05-05 17:12 44.84985 27.15491 39988 ft 494 kts 314°
2026-05-05 17:12 44.89749 27.08479 39989 ft 494 kts 314°
2026-05-05 17:13 44.94495 27.01476 39989 ft 494 kts 314°
2026-05-05 17:13 44.99246 26.94449 39989 ft 494 kts 314°
2026-05-05 17:14 45.03959 26.87458 39986 ft 493 kts 314°
2026-05-05 17:14 45.08691 26.80421 39986 ft 493 kts 314°
2026-05-05 17:15 45.13421 26.73369 40002 ft 494 kts 314°
2026-05-05 17:15 45.18141 26.66315 39999 ft 492 kts 314°
2026-05-05 17:16 45.22848 26.59261 39996 ft 492 kts 314°
2026-05-05 17:16 45.27515 26.52249 40010 ft 492 kts 314°
2026-05-05 17:17 45.32212 26.45174 40005 ft 491 kts 314°
2026-05-05 17:17 45.36907 26.38085 40005 ft 492 kts 314°
2026-05-05 17:18 45.41597 26.30984 40002 ft 491 kts 314°
2026-05-05 17:18 45.46252 26.23918 40012 ft 492 kts 314°
2026-05-05 17:19 45.50942 26.16780 40010 ft 493 kts 314°
2026-05-05 17:19 45.55635 26.09619 40009 ft 493 kts 314°
2026-05-05 17:20 45.60315 26.02458 40004 ft 493 kts 314°
2026-05-05 17:20 45.64992 25.95284 39995 ft 493 kts 314°
2026-05-05 17:21 45.69640 25.88136 39990 ft 494 kts 313°
2026-05-05 17:22 45.76664 25.77297 39992 ft 495 kts 313°
2026-05-05 17:22 45.81347 25.70048 39985 ft 496 kts 313°
2026-05-05 17:23 45.86032 25.62774 39982 ft 496 kts 313°
2026-05-05 17:23 45.90707 25.55498 39969 ft 496 kts 313°
2026-05-05 17:24 45.95341 25.48265 39970 ft 495 kts 313°
2026-05-05 17:24 46.00012 25.40956 39969 ft 495 kts 313°
2026-05-05 17:25 46.04677 25.33636 39963 ft 495 kts 313°
2026-05-05 17:25 46.08547 25.27550 39962 ft 495 kts 313°
2026-05-05 17:26 46.13188 25.20231 39960 ft 493 kts 313°
2026-05-05 17:26 46.17814 25.12919 39953 ft 493 kts 313°
2026-05-05 17:27 46.22435 25.05593 39954 ft 493 kts 313°
2026-05-05 17:27 46.27030 24.98289 39956 ft 493 kts 313°
2026-05-05 17:28 46.31647 24.90929 39957 ft 493 kts 313°
2026-05-05 17:28 46.36256 24.83563 39950 ft 493 kts 313°
2026-05-05 17:29 46.40849 24.76204 39948 ft 491 kts 313°
2026-05-05 17:29 46.45404 24.68885 39940 ft 491 kts 313°
2026-05-05 17:30 46.49979 24.61512 39939 ft 491 kts 313°
2026-05-05 17:30 46.54553 24.54124 39937 ft 491 kts 313°
2026-05-05 17:31 46.59088 24.46776 39937 ft 490 kts 312°
2026-05-05 17:31 46.63640 24.39383 39939 ft 491 kts 312°
2026-05-05 17:32 46.68190 24.31971 39942 ft 490 kts 312°
2026-05-05 17:32 46.72738 24.24544 39940 ft 490 kts 312°
2026-05-05 17:33 46.77268 24.17124 39942 ft 489 kts 312°
2026-05-05 17:33 46.81764 24.09741 39939 ft 489 kts 312°
2026-05-05 17:34 46.86280 24.02304 39937 ft 489 kts 312°
2026-05-05 17:34 46.90789 23.94857 39938 ft 489 kts 312°
2026-05-05 17:35 46.95305 23.87381 39936 ft 489 kts 312°
2026-05-05 17:35 46.99808 23.79903 39936 ft 489 kts 312°
2026-05-05 17:36 47.04310 23.72407 39940 ft 490 kts 312°
2026-05-05 17:36 47.08806 23.64901 39938 ft 490 kts 311°
2026-05-05 17:37 47.13273 23.57420 39938 ft 490 kts 311°
2026-05-05 17:37 47.17754 23.49898 39938 ft 489 kts 311°
2026-05-05 17:38 47.22240 23.42345 39937 ft 489 kts 311°
2026-05-05 17:38 47.26712 23.34794 39937 ft 490 kts 311°
2026-05-05 17:39 47.31189 23.27213 39937 ft 490 kts 311°
2026-05-05 17:39 47.35658 23.19626 39933 ft 490 kts 311°
2026-05-05 17:40 47.40119 23.12031 39931 ft 489 kts 311°
2026-05-05 17:40 47.44539 23.04483 39928 ft 488 kts 311°
2026-05-05 17:41 47.48979 22.96880 39927 ft 488 kts 311°
2026-05-05 17:41 47.53414 22.89265 39929 ft 489 kts 311°
2026-05-05 17:42 47.57853 22.81623 39928 ft 488 kts 310°
2026-05-05 17:42 47.62255 22.74021 39931 ft 489 kts 310°
2026-05-05 17:43 47.66682 22.66354 39930 ft 488 kts 310°
2026-05-05 17:43 47.71095 22.58691 39927 ft 488 kts 310°
2026-05-05 17:44 47.75505 22.51009 39921 ft 488 kts 310°
2026-05-05 17:44 47.80191 22.43734 39950 ft 487 kts 323°
2026-05-05 17:44 47.82980 22.40975 39572 ft 478 kts 328°
2026-05-05 17:45 47.85802 22.38436 38845 ft 480 kts 329°
2026-05-05 17:45 47.88674 22.35906 38087 ft 478 kts 329°
2026-05-05 17:45 47.91527 22.33352 37156 ft 479 kts 328°
2026-05-05 17:45 47.94379 22.30757 36202 ft 480 kts 328°
2026-05-05 17:46 47.97243 22.28161 35242 ft 482 kts 328°
2026-05-05 17:46 48.00130 22.25566 34278 ft 484 kts 328°
2026-05-05 17:46 48.02994 22.22985 33920 ft 474 kts 327°
2026-05-05 17:47 48.08635 22.17861 33929 ft 481 kts 327°
2026-05-05 17:47 48.14408 22.12622 33919 ft 495 kts 327°
2026-05-05 17:48 48.20333 22.07223 33913 ft 499 kts 327°
2026-05-05 17:48 48.26265 22.01804 33917 ft 499 kts 327°
2026-05-05 17:49 48.32207 21.96360 33916 ft 499 kts 327°
2026-05-05 17:49 48.38189 21.91197 33913 ft 499 kts 332°
2026-05-05 17:50 48.44433 21.86522 33914 ft 501 kts 332°
2026-05-05 17:50 48.50686 21.81803 33915 ft 503 kts 332°
2026-05-05 17:51 48.56963 21.77064 33916 ft 504 kts 332°
2026-05-05 17:51 48.63241 21.72306 33913 ft 505 kts 332°
2026-05-05 17:52 48.69486 21.67563 33908 ft 504 kts 332°
2026-05-05 17:52 48.75768 21.62776 33904 ft 505 kts 332°
2026-05-05 17:53 48.82045 21.57980 33908 ft 505 kts 332°
2026-05-05 17:53 48.88331 21.53163 33907 ft 505 kts 332°
2026-05-05 17:54 48.94610 21.48338 33901 ft 506 kts 332°
2026-05-05 17:54 49.00895 21.43495 33905 ft 506 kts 331°
2026-05-05 17:55 49.07177 21.38642 33907 ft 506 kts 331°
2026-05-05 17:55 49.13411 21.33810 33911 ft 506 kts 331°
2026-05-05 17:56 49.19722 21.28905 33919 ft 505 kts 331°
2026-05-05 17:56 49.25957 21.24046 33915 ft 506 kts 331°
2026-05-05 17:57 49.32228 21.19145 33915 ft 506 kts 331°
2026-05-05 17:57 49.38499 21.14228 33915 ft 506 kts 331°
2026-05-05 17:58 49.44770 21.09298 33908 ft 506 kts 331°
2026-05-05 17:58 49.51027 21.04365 33898 ft 507 kts 331°
2026-05-05 17:59 49.57310 20.99396 33899 ft 507 kts 331°
2026-05-05 17:59 49.63587 20.94419 33894 ft 507 kts 331°
2026-05-05 18:00 49.69875 20.89419 33884 ft 507 kts 331°
2026-05-05 18:00 49.76098 20.84454 33878 ft 507 kts 331°
2026-05-05 18:01 49.82367 20.79439 33873 ft 507 kts 331°
2026-05-05 18:01 49.88657 20.74392 33870 ft 507 kts 330°
2026-05-05 18:02 49.94915 20.69356 33861 ft 507 kts 330°
2026-05-05 18:02 50.01172 20.64306 33857 ft 506 kts 330°
2026-05-05 18:03 50.07439 20.59452 33871 ft 507 kts 338°
2026-05-05 18:03 50.10891 20.57963 33865 ft 511 kts 349°
2026-05-05 18:03 50.14386 20.57479 33859 ft 513 kts 359°
2026-05-05 18:04 50.21552 20.58117 33846 ft 515 kts
2026-05-05 18:04 50.28691 20.58885 33850 ft 514 kts
2026-05-05 18:05 50.35820 20.59606 33838 ft 514 kts
2026-05-05 18:05 50.42856 20.60350 33812 ft 489 kts
2026-05-05 18:05 50.46152 20.60693 33810 ft 471 kts
2026-05-05 18:06 50.49404 20.61027 33775 ft 454 kts
2026-05-05 18:06 50.55564 20.61668 32852 ft 443 kts
2026-05-05 18:06 50.58635 20.61990 32260 ft 441 kts
2026-05-05 18:07 50.61702 20.62309 31532 ft 442 kts
2026-05-05 18:07 50.64776 20.62630 30797 ft 443 kts
2026-05-05 18:07 50.67867 20.62954 30029 ft 445 kts
2026-05-05 18:07 50.70945 20.63278 29418 ft 442 kts
2026-05-05 18:08 50.74002 20.63600 28805 ft 437 kts
2026-05-05 18:08 50.77025 20.63917 28215 ft 433 kts
2026-05-05 18:08 50.80017 20.64232 27765 ft 426 kts
2026-05-05 18:08 50.82911 20.64538 27249 ft 421 kts
2026-05-05 18:09 50.85857 20.64848 26680 ft 417 kts
2026-05-05 18:09 50.88703 20.65159 26144 ft 413 kts
2026-05-05 18:09 50.91562 20.65501 25601 ft 409 kts
2026-05-05 18:09 50.94398 20.65845 25064 ft 406 kts
2026-05-05 18:10 50.97196 20.66172 24712 ft 398 kts
2026-05-05 18:10 50.99897 20.66487 24695 ft 380 kts
2026-05-05 18:10 51.02481 20.66792 24662 ft 364 kts
2026-05-05 18:10 51.04959 20.67086 24494 ft 353 kts
2026-05-05 18:11 51.07383 20.67370 23664 ft 349 kts
2026-05-05 18:11 51.09801 20.67653 22749 ft 346 kts
2026-05-05 18:11 51.11381 20.67841 22124 ft 343 kts
2026-05-05 18:11 51.13759 20.68124 21180 ft 341 kts
2026-05-05 18:12 51.16115 20.68403 20258 ft 338 kts
2026-05-05 18:12 51.19213 20.68770 19085 ft 336 kts
2026-05-05 18:12 51.21535 20.69046 18232 ft 334 kts
2026-05-05 18:12 51.23098 20.69231 17589 ft 332 kts
2026-05-05 18:13 51.25385 20.69503 16723 ft 328 kts
2026-05-05 18:13 51.27647 20.69773 15861 ft 323 kts
2026-05-05 18:13 51.29872 20.70038 15032 ft 318 kts
2026-05-05 18:13 51.32065 20.70299 14209 ft 315 kts
2026-05-05 18:14 51.34239 20.70558 13362 ft 311 kts
2026-05-05 18:14 51.36359 20.70812 12506 ft 307 kts
2026-05-05 18:14 51.38476 20.71066 11659 ft 303 kts
2026-05-05 18:14 51.40572 20.71316 10933 ft 304 kts
2026-05-05 18:15 51.42656 20.71566 10571 ft 298 kts
2026-05-05 18:15 51.44720 20.71813 10098 ft 297 kts
2026-05-05 18:15 51.46769 20.72060 9788 ft 290 kts
2026-05-05 18:15 51.48720 20.72298 9781 ft 275 kts
2026-05-05 18:16 51.50622 20.72525 9775 ft 272 kts
2026-05-05 18:16 51.52496 20.72748 9561 ft 269 kts
2026-05-05 18:16 51.54362 20.73167 9046 ft 275 kts 18°
2026-05-05 18:16 51.56075 20.74525 8689 ft 274 kts 26°
2026-05-05 18:17 51.57760 20.75969 8320 ft 273 kts 25°
2026-05-05 18:17 51.59438 20.77282 7980 ft 271 kts 23°
2026-05-05 18:17 51.61145 20.78566 7617 ft 270 kts 23°
2026-05-05 18:17 51.62841 20.79870 7274 ft 269 kts 24°
2026-05-05 18:18 51.64522 20.81184 6984 ft 266 kts 24°
2026-05-05 18:18 51.66182 20.82477 6998 ft 266 kts 24°
2026-05-05 18:18 51.67856 20.83776 6995 ft 267 kts 24°
2026-05-05 18:18 51.69533 20.85080 6998 ft 267 kts 24°
2026-05-05 18:19 51.71204 20.86381 6990 ft 262 kts 24°
2026-05-05 18:19 51.72793 20.87620 6773 ft 255 kts 24°
2026-05-05 18:19 51.74401 20.88873 6410 ft 256 kts 24°
2026-05-05 18:19 51.75999 20.90120 6082 ft 254 kts 24°
2026-05-05 18:20 51.77589 20.91361 5750 ft 253 kts 24°
2026-05-05 18:20 51.79171 20.92597 5420 ft 252 kts 24°
2026-05-05 18:20 51.80720 20.93809 4772 ft 248 kts 24°
2026-05-05 18:20 51.82277 20.95027 4100 ft 246 kts 25°
2026-05-05 18:21 51.83797 20.96219 4019 ft 242 kts 25°
2026-05-05 18:21 51.85317 20.97411 4018 ft 244 kts 25°
2026-05-05 18:21 51.86841 20.98606 4002 ft 235 kts 25°
2026-05-05 18:21 51.88232 20.99699 3994 ft 215 kts 25°
2026-05-05 18:22 51.89557 21.00740 3993 ft 207 kts 25°
2026-05-05 18:22 51.90824 21.01736 3992 ft 204 kts 25°
2026-05-05 18:22 51.92078 21.02721 3984 ft 195 kts 25°
2026-05-05 18:22 51.93272 21.03661 3822 ft 187 kts 25°
2026-05-05 18:23 51.94453 21.04591 3256 ft 190 kts 25°
2026-05-05 18:23 51.95616 21.05507 2983 ft 179 kts 26°
2026-05-05 18:23 51.96761 21.06410 2982 ft 188 kts 26°
2026-05-05 18:23 51.97931 21.07333 2989 ft 186 kts 26°
2026-05-05 18:24 51.99092 21.08250 3002 ft 188 kts 26°
2026-05-05 18:24 52.00270 21.09182 3001 ft 189 kts 26°
2026-05-05 18:24 52.01525 21.09676 2910 ft 184 kts 350°
2026-05-05 18:24 52.02632 21.08772 2962 ft 177 kts 321°
2026-05-05 18:25 52.03765 21.07842 2903 ft 186 kts 329°
2026-05-05 18:25 52.04522 21.07209 2757 ft 183 kts 328°
2026-05-05 18:25 52.06017 21.05920 2447 ft 182 kts 327°
2026-05-05 18:25 52.07126 21.04951 2215 ft 181 kts 327°
2026-05-05 18:26 52.08235 21.03982 1987 ft 181 kts 327°
2026-05-05 18:26 52.09340 21.03026 1739 ft 181 kts 327°
2026-05-05 18:26 52.10449 21.02067 1388 ft 179 kts 328°
2026-05-05 18:26 52.11512 21.01149 1084 ft 172 kts 329°
2026-05-05 18:27 52.12560 21.00206 833 ft 171 kts 329°
2026-05-05 18:27 52.13585 20.99327 698 ft 164 kts 328°
2026-05-05 18:27 52.14561 20.98473 515 ft 152 kts 330°
2026-05-05 18:27 52.15461 20.97686 369 ft 144 kts 330°
2026-05-05 18:28 52.16584 20.96700 353 ft 46 kts 332°
2026-05-05 18:28 52.16804 20.96532 352 ft 21 kts 346°
2026-05-05 18:28 52.16934 20.96507 346 ft 9 kts
2026-05-05 18:29 52.16980 20.96508 346 ft 0 kts
2026-05-05 18:29 52.16982 20.96508 347 ft 1 kts
2026-05-05 18:30 52.17032 20.96511 348 ft 12 kts
2026-05-05 18:30 52.17084 20.96559 353 ft 7 kts 44°
2026-05-05 18:30 52.17108 20.96611 355 ft 5 kts 60°
2026-05-05 18:30 52.17129 20.96674 353 ft 7 kts 63°
2026-05-05 18:31 52.17157 20.96766 352 ft 10 kts 63°
2026-05-05 18:31 52.17186 20.96874 355 ft 11 kts 68°
2026-05-05 18:31 52.17210 20.96955 353 ft 0 kts 60°